www.cux-wetter.de
Wetterdaten: Freitag, 28.08.2015
Datum Zeit Temp. A. Feuchte A. Luftdruck Regen Wind Richtung Richtung Sonnenschein Solar Taupunkt Windchill Windben
28.08.2015 00:00 14,8 C 94 % 1008,8 hPa 0,0 l/m 8,4 km/h (2 Bft) SW 219 0 min 0 W/m 13,8 C 13,7 C 14,5 km/h (3 Bft)
28.08.2015 00:03 14,9 C 94 % 1008,9 hPa 0,0 l/m 10,5 km/h (2 Bft) S 191 0 min 0 W/m 13,9 C 12,8 C 17,7 km/h (3 Bft)
28.08.2015 00:06 14,9 C 93 % 1008,9 hPa 0,0 l/m 9,4 km/h (2 Bft) SW 218 0 min 0 W/m 13,8 C 13,3 C 14,5 km/h (3 Bft)
28.08.2015 00:09 15,0 C 93 % 1008,9 hPa 0,0 l/m 12,2 km/h (2 Bft) SW 219 0 min 0 W/m 13,9 C 12,2 C 22,5 km/h (4 Bft)
28.08.2015 00:12 15,1 C 92 % 1009,0 hPa 0,0 l/m 13,1 km/h (3 Bft) SW 229 0 min 0 W/m 13,8 C 12,0 C 22,5 km/h (4 Bft)
28.08.2015 00:15 15,2 C 91 % 1009,0 hPa 0,0 l/m 9,5 km/h (2 Bft) SW 232 0 min 0 W/m 13,7 C 13,6 C 12,9 km/h (3 Bft)
28.08.2015 00:18 15,2 C 91 % 1009,1 hPa 0,0 l/m 9,8 km/h (2 Bft) SW 234 0 min 0 W/m 13,7 C 13,4 C 14,5 km/h (3 Bft)
28.08.2015 00:21 15,3 C 91 % 1009,0 hPa 0,0 l/m 13,9 km/h (3 Bft) SW 227 0 min 0 W/m 13,8 C 11,9 C 20,9 km/h (4 Bft)
28.08.2015 00:24 15,3 C 91 % 1009,0 hPa 0,0 l/m 13,9 km/h (3 Bft) SW 230 0 min 0 W/m 13,8 C 11,9 C 22,5 km/h (4 Bft)
28.08.2015 00:27 15,3 C 90 % 1009,0 hPa 0,0 l/m 12,2 km/h (2 Bft) S-SW 201 0 min 0 W/m 13,7 C 12,5 C 22,5 km/h (4 Bft)
28.08.2015 00:30 15,3 C 90 % 1009,1 hPa 0,0 l/m 14,4 km/h (3 Bft) SW 229 0 min 0 W/m 13,7 C 11,8 C 22,5 km/h (4 Bft)
28.08.2015 00:33 15,4 C 90 % 1009,0 hPa 0,0 l/m 15,1 km/h (3 Bft) S-SW 202 0 min 0 W/m 13,8 C 11,6 C 24,1 km/h (4 Bft)
28.08.2015 00:36 15,4 C 90 % 1009,0 hPa 0,0 l/m 12,2 km/h (2 Bft) SW 215 0 min 0 W/m 13,8 C 12,7 C 19,3 km/h (3 Bft)
28.08.2015 00:39 15,4 C 90 % 1009,0 hPa 0,0 l/m 15,0 km/h (3 Bft) SW 233 0 min 0 W/m 13,8 C 11,7 C 24,1 km/h (4 Bft)
28.08.2015 00:42 15,4 C 90 % 1009,1 hPa 0,0 l/m 13,8 km/h (3 Bft) SW 219 0 min 0 W/m 13,8 C 12,1 C 22,5 km/h (4 Bft)
28.08.2015 00:45 15,4 C 90 % 1009,2 hPa 0,0 l/m 14,7 km/h (3 Bft) S-SW 209 0 min 0 W/m 13,8 C 11,8 C 25,7 km/h (4 Bft)
28.08.2015 00:48 15,4 C 90 % 1009,1 hPa 0,0 l/m 13,1 km/h (3 Bft) S-SW 195 0 min 0 W/m 13,8 C 12,3 C 22,5 km/h (4 Bft)
28.08.2015 00:51 15,4 C 90 % 1009,1 hPa 0,0 l/m 11,0 km/h (2 Bft) W 271 0 min 0 W/m 13,8 C 13,1 C 17,7 km/h (3 Bft)
28.08.2015 00:54 15,4 C 90 % 1009,3 hPa 0,0 l/m 12,1 km/h (2 Bft) W-SW 247 0 min 0 W/m 13,8 C 12,7 C 22,5 km/h (4 Bft)
28.08.2015 00:57 15,4 C 90 % 1009,3 hPa 0,0 l/m 12,9 km/h (3 Bft) W-SW 245 0 min 0 W/m 13,8 C 12,4 C 19,3 km/h (3 Bft)
28.08.2015 01:00 15,4 C 90 % 1009,3 hPa 0,0 l/m 12,2 km/h (2 Bft) W-SW 257 0 min 0 W/m 13,8 C 12,7 C 24,1 km/h (4 Bft)
28.08.2015 01:03 15,4 C 90 % 1009,3 hPa 0,0 l/m 14,8 km/h (3 Bft) SW 227 0 min 0 W/m 13,8 C 11,7 C 25,7 km/h (4 Bft)
28.08.2015 01:06 15,5 C 90 % 1009,3 hPa 0,0 l/m 13,5 km/h (3 Bft) SW 231 0 min 0 W/m 13,9 C 12,3 C 20,9 km/h (4 Bft)
28.08.2015 01:09 15,5 C 90 % 1009,4 hPa 0,0 l/m 17,1 km/h (3 Bft) S-SW 206 0 min 0 W/m 13,9 C 11,2 C 25,7 km/h (4 Bft)
28.08.2015 01:12 15,5 C 90 % 1009,3 hPa 0,0 l/m 13,7 km/h (3 Bft) W-SW 240 0 min 0 W/m 13,9 C 12,2 C 22,5 km/h (4 Bft)
28.08.2015 01:15 15,5 C 90 % 1009,2 hPa 0,0 l/m 13,6 km/h (3 Bft) S-SW 213 0 min 0 W/m 13,9 C 12,3 C 22,5 km/h (4 Bft)
28.08.2015 01:18 15,5 C 90 % 1009,2 hPa 0,0 l/m 13,7 km/h (3 Bft) SW 226 0 min 0 W/m 13,9 C 12,2 C 24,1 km/h (4 Bft)
28.08.2015 01:21 15,5 C 90 % 1009,2 hPa 0,0 l/m 15,3 km/h (3 Bft) W 276 0 min 0 W/m 13,9 C 11,7 C 22,5 km/h (4 Bft)
28.08.2015 01:24 15,5 C 90 % 1009,2 hPa 0,0 l/m 10,4 km/h (2 Bft) S-SW 209 0 min 0 W/m 13,9 C 13,5 C 16,1 km/h (3 Bft)
28.08.2015 01:27 15,5 C 90 % 1009,3 hPa 0,0 l/m 15,8 km/h (3 Bft) S-SW 213 0 min 0 W/m 13,9 C 11,5 C 30,6 km/h (5 Bft)
28.08.2015 01:30 15,5 C 90 % 1009,2 hPa 0,0 l/m 13,3 km/h (3 Bft) S-SW 212 0 min 0 W/m 13,9 C 12,4 C 20,9 km/h (4 Bft)
28.08.2015 01:33 15,4 C 90 % 1009,2 hPa 0,0 l/m 12,9 km/h (3 Bft) SW 220 0 min 0 W/m 13,8 C 12,4 C 20,9 km/h (4 Bft)
28.08.2015 01:36 15,4 C 90 % 1009,2 hPa 0,0 l/m 14,5 km/h (3 Bft) SW 234 0 min 0 W/m 13,8 C 11,8 C 22,5 km/h (4 Bft)
28.08.2015 01:39 15,4 C 90 % 1009,2 hPa 0,0 l/m 14,3 km/h (3 Bft) S-SW 210 0 min 0 W/m 13,8 C 11,9 C 20,9 km/h (4 Bft)
28.08.2015 01:42 15,4 C 90 % 1009,3 hPa 0,0 l/m 13,6 km/h (3 Bft) SW 215 0 min 0 W/m 13,8 C 12,1 C 20,9 km/h (4 Bft)
28.08.2015 01:45 15,4 C 90 % 1009,2 hPa 0,0 l/m 11,0 km/h (2 Bft) SW 231 0 min 0 W/m 13,8 C 13,1 C 19,3 km/h (3 Bft)
28.08.2015 01:48 15,4 C 90 % 1009,2 hPa 0,0 l/m 12,9 km/h (3 Bft) W 262 0 min 0 W/m 13,8 C 12,4 C 22,5 km/h (4 Bft)
28.08.2015 01:51 15,4 C 90 % 1009,3 hPa 0,0 l/m 11,8 km/h (2 Bft) SW 221 0 min 0 W/m 13,8 C 12,8 C 19,3 km/h (3 Bft)
28.08.2015 01:54 15,4 C 90 % 1009,3 hPa 0,0 l/m 13,9 km/h (3 Bft) SW 219 0 min 0 W/m 13,8 C 12,0 C 22,5 km/h (4 Bft)
28.08.2015 01:57 15,4 C 90 % 1009,3 hPa 0,0 l/m 13,2 km/h (3 Bft) SW 234 0 min 0 W/m 13,8 C 12,3 C 22,5 km/h (4 Bft)
28.08.2015 02:00 15,5 C 90 % 1009,3 hPa 0,0 l/m 11,4 km/h (2 Bft) W 261 0 min 0 W/m 13,9 C 13,1 C 19,3 km/h (3 Bft)
28.08.2015 02:03 15,5 C 90 % 1009,3 hPa 0,0 l/m 13,7 km/h (3 Bft) W-SW 244 0 min 0 W/m 13,9 C 12,2 C 24,1 km/h (4 Bft)
28.08.2015 02:06 15,6 C 90 % 1009,3 hPa 0,0 l/m 10,9 km/h (2 Bft) W-SW 242 0 min 0 W/m 14,0 C 13,4 C 16,1 km/h (3 Bft)
28.08.2015 02:09 15,6 C 90 % 1009,3 hPa 0,0 l/m 11,7 km/h (2 Bft) SW 223 0 min 0 W/m 14,0 C 13,1 C 25,7 km/h (4 Bft)
28.08.2015 02:12 15,6 C 90 % 1009,3 hPa 0,0 l/m 13,8 km/h (3 Bft) SW 229 0 min 0 W/m 14,0 C 12,3 C 22,5 km/h (4 Bft)
28.08.2015 02:15 15,6 C 90 % 1009,3 hPa 0,0 l/m 13,8 km/h (3 Bft) SW 222 0 min 0 W/m 14,0 C 12,3 C 19,3 km/h (3 Bft)
28.08.2015 02:18 15,5 C 90 % 1009,4 hPa 0,0 l/m 9,7 km/h (2 Bft) W-SW 239 0 min 0 W/m 13,9 C 13,8 C 17,7 km/h (3 Bft)
28.08.2015 02:21 15,5 C 90 % 1009,4 hPa 0,0 l/m 12,0 km/h (2 Bft) W-SW 238 0 min 0 W/m 13,9 C 12,8 C 20,9 km/h (4 Bft)
28.08.2015 02:24 15,5 C 90 % 1009,4 hPa 0,0 l/m 13,5 km/h (3 Bft) SW 215 0 min 0 W/m 13,9 C 12,3 C 20,9 km/h (4 Bft)
28.08.2015 02:27 15,5 C 90 % 1009,4 hPa 0,0 l/m 14,5 km/h (3 Bft) SW 221 0 min 0 W/m 13,9 C 12,0 C 25,7 km/h (4 Bft)
28.08.2015 02:30 15,5 C 90 % 1009,4 hPa 0,0 l/m 14,1 km/h (3 Bft) W-SW 257 0 min 0 W/m 13,9 C 12,1 C 22,5 km/h (4 Bft)
28.08.2015 02:33 15,5 C 90 % 1009,5 hPa 0,0 l/m 13,2 km/h (3 Bft) S-SW 210 0 min 0 W/m 13,9 C 12,4 C 24,1 km/h (4 Bft)
28.08.2015 02:36 15,5 C 90 % 1009,4 hPa 0,0 l/m 14,0 km/h (3 Bft) SW 217 0 min 0 W/m 13,9 C 12,1 C 24,1 km/h (4 Bft)
28.08.2015 02:39 15,4 C 90 % 1009,4 hPa 0,0 l/m 13,8 km/h (3 Bft) W 260 0 min 0 W/m 13,8 C 12,1 C 24,1 km/h (4 Bft)
28.08.2015 02:42 15,4 C 90 % 1009,5 hPa 0,0 l/m 10,8 km/h (2 Bft) S-SW 195 0 min 0 W/m 13,8 C 13,2 C 17,7 km/h (3 Bft)
28.08.2015 02:45 15,4 C 90 % 1009,6 hPa 0,0 l/m 13,9 km/h (3 Bft) W-SW 252 0 min 0 W/m 13,8 C 12,0 C 25,7 km/h (4 Bft)
28.08.2015 02:48 15,3 C 90 % 1009,6 hPa 0,0 l/m 16,1 km/h (3 Bft) W-SW 240 0 min 0 W/m 13,7 C 11,2 C 24,1 km/h (4 Bft)
28.08.2015 02:51 15,3 C 90 % 1009,5 hPa 0,0 l/m 11,4 km/h (2 Bft) S-SW 192 0 min 0 W/m 13,7 C 12,9 C 17,7 km/h (3 Bft)
28.08.2015 02:54 15,3 C 90 % 1009,6 hPa 0,0 l/m 11,8 km/h (2 Bft) S-SW 202 0 min 0 W/m 13,7 C 12,7 C 19,3 km/h (3 Bft)
28.08.2015 02:57 15,2 C 91 % 1009,7 hPa 0,0 l/m 12,6 km/h (3 Bft) W-SW 241 0 min 0 W/m 13,7 C 12,3 C 24,1 km/h (4 Bft)
28.08.2015 03:00 15,2 C 91 % 1009,7 hPa 0,0 l/m 16,1 km/h (3 Bft) W-SW 252 0 min 0 W/m 13,7 C 11,1 C 24,1 km/h (4 Bft)
28.08.2015 03:03 15,2 C 91 % 1009,7 hPa 0,0 l/m 11,7 km/h (2 Bft) SW 234 0 min 0 W/m 13,7 C 12,6 C 17,7 km/h (3 Bft)
28.08.2015 03:06 15,2 C 91 % 1009,8 hPa 0,0 l/m 11,0 km/h (2 Bft) W-SW 240 0 min 0 W/m 13,7 C 12,9 C 16,1 km/h (3 Bft)
28.08.2015 03:09 15,2 C 91 % 1009,8 hPa 0,0 l/m 11,3 km/h (2 Bft) W 261 0 min 0 W/m 13,7 C 12,8 C 19,3 km/h (3 Bft)
28.08.2015 03:12 15,2 C 91 % 1009,8 hPa 0,0 l/m 13,9 km/h (3 Bft) W-SW 244 0 min 0 W/m 13,7 C 11,8 C 20,9 km/h (4 Bft)
28.08.2015 03:15 15,2 C 91 % 1009,9 hPa 0,0 l/m 12,2 km/h (2 Bft) SW 218 0 min 0 W/m 13,7 C 12,4 C 22,5 km/h (4 Bft)
28.08.2015 03:18 15,2 C 91 % 1009,9 hPa 0,0 l/m 14,5 km/h (3 Bft) SW 230 0 min 0 W/m 13,7 C 11,6 C 24,1 km/h (4 Bft)
28.08.2015 03:21 15,2 C 91 % 1010,0 hPa 0,0 l/m 16,1 km/h (3 Bft) SW 226 0 min 0 W/m 13,7 C 11,1 C 25,7 km/h (4 Bft)
28.08.2015 03:24 15,2 C 92 % 1010,0 hPa 0,0 l/m 15,6 km/h (3 Bft) S-SW 203 0 min 0 W/m 13,9 C 11,2 C 22,5 km/h (4 Bft)
28.08.2015 03:27 15,2 C 91 % 1010,0 hPa 0,0 l/m 13,3 km/h (3 Bft) S-SW 204 0 min 0 W/m 13,7 C 12,0 C 22,5 km/h (4 Bft)
28.08.2015 03:30 15,2 C 91 % 1010,0 hPa 0,0 l/m 11,5 km/h (2 Bft) SW 221 0 min 0 W/m 13,7 C 12,7 C 20,9 km/h (4 Bft)
28.08.2015 03:33 15,1 C 91 % 1010,0 hPa 0,0 l/m 11,5 km/h (2 Bft) W-SW 239 0 min 0 W/m 13,6 C 12,6 C 19,3 km/h (3 Bft)
28.08.2015 03:36 15,1 C 92 % 1010,1 hPa 0,0 l/m 13,1 km/h (3 Bft) SW 224 0 min 0 W/m 13,8 C 12,0 C 19,3 km/h (3 Bft)
28.08.2015 03:39 15,1 C 92 % 1010,1 hPa 0,0 l/m 13,0 km/h (3 Bft) SW 228 0 min 0 W/m 13,8 C 12,0 C 20,9 km/h (4 Bft)
28.08.2015 03:42 15,1 C 92 % 1010,2 hPa 0,0 l/m 11,9 km/h (2 Bft) S-SW 204 0 min 0 W/m 13,8 C 12,4 C 19,3 km/h (3 Bft)
28.08.2015 03:45 15,1 C 92 % 1010,2 hPa 0,0 l/m 11,4 km/h (2 Bft) SW 234 0 min 0 W/m 13,8 C 12,6 C 17,7 km/h (3 Bft)
28.08.2015 03:48 15,1 C 92 % 1010,2 hPa 0,0 l/m 11,5 km/h (2 Bft) W-SW 242 0 min 0 W/m 13,8 C 12,6 C 20,9 km/h (4 Bft)
28.08.2015 03:51 15,2 C 92 % 1010,1 hPa 0,0 l/m 11,0 km/h (2 Bft) W-SW 248 0 min 0 W/m 13,9 C 12,9 C 22,5 km/h (4 Bft)
28.08.2015 03:54 15,2 C 92 % 1010,2 hPa 0,0 l/m 12,2 km/h (2 Bft) SW 216 0 min 0 W/m 13,9 C 12,4 C 19,3 km/h (3 Bft)
28.08.2015 03:57 15,2 C 92 % 1010,2 hPa 0,0 l/m 10,2 km/h (2 Bft) SW 221 0 min 0 W/m 13,9 C 13,2 C 16,1 km/h (3 Bft)
28.08.2015 04:00 15,2 C 92 % 1010,3 hPa 0,0 l/m 13,3 km/h (3 Bft) SW 231 0 min 0 W/m 13,9 C 12,0 C 22,5 km/h (4 Bft)
28.08.2015 04:03 15,2 C 92 % 1010,3 hPa 0,0 l/m 11,9 km/h (2 Bft) SW 229 0 min 0 W/m 13,9 C 12,5 C 16,1 km/h (3 Bft)
28.08.2015 04:06 15,1 C 92 % 1010,3 hPa 0,0 l/m 13,2 km/h (3 Bft) SW 223 0 min 0 W/m 13,8 C 11,9 C 22,5 km/h (4 Bft)
28.08.2015 04:09 15,1 C 92 % 1010,4 hPa 0,0 l/m 11,4 km/h (2 Bft) W-SW 240 0 min 0 W/m 13,8 C 12,6 C 19,3 km/h (3 Bft)
28.08.2015 04:12 15,1 C 92 % 1010,4 hPa 0,0 l/m 11,7 km/h (2 Bft) SW 215 0 min 0 W/m 13,8 C 12,5 C 20,9 km/h (4 Bft)
28.08.2015 04:15 15,1 C 92 % 1010,4 hPa 0,0 l/m 10,3 km/h (2 Bft) SW 236 0 min 0 W/m 13,8 C 13,1 C 16,1 km/h (3 Bft)
28.08.2015 04:18 15,1 C 92 % 1010,5 hPa 0,0 l/m 10,4 km/h (2 Bft) W-SW 241 0 min 0 W/m 13,8 C 13,1 C 19,3 km/h (3 Bft)
28.08.2015 04:21 15,1 C 92 % 1010,6 hPa 0,0 l/m 10,1 km/h (2 Bft) SW 236 0 min 0 W/m 13,8 C 13,2 C 16,1 km/h (3 Bft)
28.08.2015 04:24 15,1 C 92 % 1010,6 hPa 0,0 l/m 11,6 km/h (2 Bft) W-SW 238 0 min 0 W/m 13,8 C 12,5 C 20,9 km/h (4 Bft)
28.08.2015 04:27 15,1 C 92 % 1010,6 hPa 0,0 l/m 13,6 km/h (3 Bft) SW 221 0 min 0 W/m 13,8 C 11,8 C 22,5 km/h (4 Bft)
28.08.2015 04:30 15,1 C 92 % 1010,6 hPa 0,0 l/m 11,1 km/h (2 Bft) SW 220 0 min 0 W/m 13,8 C 12,8 C 17,7 km/h (3 Bft)
28.08.2015 04:33 15,0 C 92 % 1010,7 hPa 0,0 l/m 10,3 km/h (2 Bft) SW 233 0 min 0 W/m 13,7 C 13,0 C 19,3 km/h (3 Bft)
28.08.2015 04:36 15,0 C 92 % 1010,7 hPa 0,0 l/m 13,4 km/h (3 Bft) SW 228 0 min 0 W/m 13,7 C 11,7 C 22,5 km/h (4 Bft)
28.08.2015 04:39 15,0 C 92 % 1010,8 hPa 0,0 l/m 9,1 km/h (2 Bft) S-SW 201 0 min 0 W/m 13,7 C 13,5 C 17,7 km/h (3 Bft)
28.08.2015 04:42 15,0 C 92 % 1010,8 hPa 0,0 l/m 12,6 km/h (3 Bft) SW 229 0 min 0 W/m 13,7 C 12,0 C 19,3 km/h (3 Bft)
28.08.2015 04:45 15,0 C 92 % 1010,8 hPa 0,0 l/m 10,6 km/h (2 Bft) W-SW 251 0 min 0 W/m 13,7 C 12,9 C 16,1 km/h (3 Bft)
28.08.2015 04:48 15,0 C 92 % 1010,8 hPa 0,0 l/m 11,2 km/h (2 Bft) SW 217 0 min 0 W/m 13,7 C 12,6 C 19,3 km/h (3 Bft)
28.08.2015 04:51 15,0 C 92 % 1010,8 hPa 0,0 l/m 9,6 km/h (2 Bft) S-SW 211 0 min 0 W/m 13,7 C 13,3 C 17,7 km/h (3 Bft)
28.08.2015 04:54 15,0 C 93 % 1010,9 hPa 0,0 l/m 8,4 km/h (2 Bft) SW 227 0 min 0 W/m 13,9 C 13,9 C 12,9 km/h (3 Bft)
28.08.2015 04:57 15,0 C 93 % 1010,9 hPa 0,0 l/m 8,8 km/h (2 Bft) SW 223 0 min 0 W/m 13,9 C 13,7 C 14,5 km/h (3 Bft)
28.08.2015 05:00 15,0 C 93 % 1011,0 hPa 0,0 l/m 9,1 km/h (2 Bft) W-SW 237 0 min 0 W/m 13,9 C 13,5 C 17,7 km/h (3 Bft)
28.08.2015 05:03 15,0 C 93 % 1011,0 hPa 0,0 l/m 9,4 km/h (2 Bft) SW 236 0 min 0 W/m 13,9 C 13,4 C 17,7 km/h (3 Bft)
28.08.2015 05:06 14,9 C 93 % 1011,0 hPa 0,0 l/m 11,1 km/h (2 Bft) SW 215 0 min 0 W/m 13,8 C 12,5 C 20,9 km/h (4 Bft)
28.08.2015 05:09 15,0 C 93 % 1011,0 hPa 0,0 l/m 8,9 km/h (2 Bft) SW 222 0 min 0 W/m 13,9 C 13,6 C 12,9 km/h (3 Bft)
28.08.2015 05:12 15,0 C 93 % 1011,0 hPa 0,0 l/m 8,3 km/h (2 Bft) W-SW 242 0 min 0 W/m 13,9 C 13,9 C 12,9 km/h (3 Bft)
28.08.2015 05:15 14,9 C 93 % 1011,1 hPa 0,0 l/m 8,6 km/h (2 Bft) SW 233 0 min 0 W/m 13,8 C 13,7 C 16,1 km/h (3 Bft)
28.08.2015 05:18 14,9 C 93 % 1011,0 hPa 0,0 l/m 8,0 km/h (2 Bft) S-SW 198 0 min 0 W/m 13,8 C 14,0 C 12,9 km/h (3 Bft)
28.08.2015 05:21 14,9 C 93 % 1011,1 hPa 0,0 l/m 9,0 km/h (2 Bft) SW 228 0 min 0 W/m 13,8 C 13,5 C 14,5 km/h (3 Bft)
28.08.2015 05:24 14,9 C 93 % 1011,0 hPa 0,0 l/m 8,8 km/h (2 Bft) SW 225 0 min 0 W/m 13,8 C 13,6 C 12,9 km/h (3 Bft)
28.08.2015 05:27 14,9 C 93 % 1011,1 hPa 0,0 l/m 10,4 km/h (2 Bft) S-SW 211 0 min 0 W/m 13,8 C 12,8 C 16,1 km/h (3 Bft)
28.08.2015 05:30 14,9 C 93 % 1011,1 hPa 0,0 l/m 7,8 km/h (2 Bft) SW 227 0 min 0 W/m 13,8 C 14,1 C 12,9 km/h (3 Bft)
28.08.2015 05:33 14,9 C 93 % 1011,1 hPa 0,0 l/m 8,1 km/h (2 Bft) SW 236 0 min 0 W/m 13,8 C 13,9 C 12,9 km/h (3 Bft)
28.08.2015 05:36 14,9 C 93 % 1011,0 hPa 0,0 l/m 7,5 km/h (2 Bft) SW 236 0 min 0 W/m 13,8 C 14,3 C 12,9 km/h (3 Bft)
28.08.2015 05:39 14,8 C 93 % 1011,0 hPa 0,0 l/m 8,6 km/h (2 Bft) SW 223 0 min 0 W/m 13,7 C 13,6 C 14,5 km/h (3 Bft)
28.08.2015 05:42 14,8 C 93 % 1011,0 hPa 0,0 l/m 10,3 km/h (2 Bft) S-SW 205 0 min 0 W/m 13,7 C 12,8 C 14,5 km/h (3 Bft)
28.08.2015 05:45 14,7 C 93 % 1011,1 hPa 0,0 l/m 10,6 km/h (2 Bft) SW 217 0 min 0 W/m 13,6 C 12,5 C 16,1 km/h (3 Bft)
28.08.2015 05:48 14,7 C 93 % 1011,1 hPa 0,0 l/m 10,5 km/h (2 Bft) W-SW 250 0 min 0 W/m 13,6 C 12,6 C 16,1 km/h (3 Bft)
28.08.2015 05:51 14,7 C 94 % 1011,1 hPa 0,0 l/m 11,0 km/h (2 Bft) S-SW 213 0 min 0 W/m 13,7 C 12,3 C 17,7 km/h (3 Bft)
28.08.2015 05:54 14,7 C 94 % 1011,2 hPa 0,0 l/m 9,4 km/h (2 Bft) SW 216 0 min 0 W/m 13,7 C 13,1 C 16,1 km/h (3 Bft)
28.08.2015 05:57 14,7 C 94 % 1011,2 hPa 0,0 l/m 9,6 km/h (2 Bft) SW 233 0 min 0 W/m 13,7 C 13,0 C 16,1 km/h (3 Bft)
28.08.2015 06:00 14,7 C 94 % 1011,2 hPa 0,0 l/m 12,2 km/h (2 Bft) S-SW 206 0 min 0 W/m 13,7 C 11,8 C 17,7 km/h (3 Bft)
28.08.2015 06:03 14,7 C 94 % 1011,3 hPa 0,0 l/m 9,1 km/h (2 Bft) SW 223 0 min 0 W/m 13,7 C 13,2 C 16,1 km/h (3 Bft)
28.08.2015 06:06 14,7 C 94 % 1011,4 hPa 0,0 l/m 8,8 km/h (2 Bft) SW 226 0 min 0 W/m 13,7 C 13,4 C 12,9 km/h (3 Bft)
28.08.2015 06:09 14,7 C 94 % 1011,4 hPa 0,0 l/m 9,5 km/h (2 Bft) SW 232 0 min 0 W/m 13,7 C 13,0 C 16,1 km/h (3 Bft)
28.08.2015 06:12 14,7 C 94 % 1011,4 hPa 0,0 l/m 9,7 km/h (2 Bft) S-SW 198 0 min 0 W/m 13,7 C 12,9 C 17,7 km/h (3 Bft)
28.08.2015 06:15 14,7 C 94 % 1011,5 hPa 0,0 l/m 11,2 km/h (2 Bft) SW 219 0 min 0 W/m 13,7 C 12,3 C 17,7 km/h (3 Bft)
28.08.2015 06:18 14,7 C 94 % 1011,5 hPa 0,0 l/m 10,9 km/h (2 Bft) W-SW 240 0 min 0 W/m 13,7 C 12,4 C 17,7 km/h (3 Bft)
28.08.2015 06:21 14,7 C 94 % 1011,4 hPa 0,0 l/m 8,2 km/h (2 Bft) W-SW 257 0 min 0 W/m 13,7 C 13,7 C 16,1 km/h (3 Bft)
28.08.2015 06:24 14,7 C 94 % 1011,5 hPa 0,0 l/m 10,2 km/h (2 Bft) W-SW 244 0 min 0 W/m 13,7 C 12,7 C 16,1 km/h (3 Bft)
28.08.2015 06:27 14,7 C 94 % 1011,5 hPa 0,0 l/m 10,8 km/h (2 Bft) SW 232 0 min 0 W/m 13,7 C 12,4 C 16,1 km/h (3 Bft)
28.08.2015 06:30 14,7 C 94 % 1011,6 hPa 0,0 l/m 10,7 km/h (2 Bft) W-SW 255 0 min 0 W/m 13,7 C 12,5 C 17,7 km/h (3 Bft)
28.08.2015 06:33 14,7 C 94 % 1011,5 hPa 0,0 l/m 9,4 km/h (2 Bft) SW 229 0 min 0 W/m 13,7 C 13,1 C 16,1 km/h (3 Bft)
28.08.2015 06:36 14,7 C 93 % 1011,6 hPa 0,0 l/m 11,6 km/h (2 Bft) SW 231 0 min 0 W/m 13,6 C 12,1 C 17,7 km/h (3 Bft)
28.08.2015 06:39 14,7 C 93 % 1011,6 hPa 0,0 l/m 8,6 km/h (2 Bft) W 259 0 min 0 W/m 13,6 C 13,5 C 16,1 km/h (3 Bft)
28.08.2015 06:42 14,7 C 93 % 1011,6 hPa 0,0 l/m 8,9 km/h (2 Bft) S-SW 205 0 min 5 W/m 13,6 C 13,3 C 16,1 km/h (3 Bft)
28.08.2015 06:45 14,7 C 93 % 1011,6 hPa 0,0 l/m 8,0 km/h (2 Bft) S 176 0 min 7 W/m 13,6 C 13,8 C 12,9 km/h (3 Bft)
28.08.2015 06:48 14,7 C 93 % 1011,7 hPa 0,0 l/m 7,7 km/h (2 Bft) S-SW 213 0 min 7 W/m 13,6 C 14,0 C 11,3 km/h (2 Bft)
28.08.2015 06:51 14,7 C 94 % 1011,8 hPa 0,0 l/m 10,1 km/h (2 Bft) S-SW 211 0 min 9 W/m 13,7 C 12,7 C 16,1 km/h (3 Bft)
28.08.2015 06:54 14,7 C 94 % 1011,8 hPa 0,0 l/m 8,7 km/h (2 Bft) W-SW 246 0 min 11 W/m 13,7 C 13,4 C 14,5 km/h (3 Bft)
28.08.2015 06:57 14,7 C 94 % 1011,8 hPa 0,0 l/m 11,8 km/h (2 Bft) S 188 0 min 11 W/m 13,7 C 12,0 C 19,3 km/h (3 Bft)
28.08.2015 07:00 14,7 C 94 % 1011,8 hPa 0,0 l/m 10,3 km/h (2 Bft) SW 228 0 min 12 W/m 13,7 C 12,6 C 19,3 km/h (3 Bft)
28.08.2015 07:03 14,7 C 94 % 1011,9 hPa 0,0 l/m 12,1 km/h (2 Bft) SW 218 0 min 12 W/m 13,7 C 11,9 C 19,3 km/h (3 Bft)
28.08.2015 07:06 14,7 C 93 % 1011,9 hPa 0,0 l/m 11,8 km/h (2 Bft) W-SW 238 0 min 26 W/m 13,6 C 12,0 C 22,5 km/h (4 Bft)
28.08.2015 07:09 14,7 C 93 % 1012,0 hPa 0,0 l/m 12,2 km/h (2 Bft) SW 229 0 min 18 W/m 13,6 C 11,8 C 19,3 km/h (3 Bft)
28.08.2015 07:12 14,7 C 93 % 1011,9 hPa 0,0 l/m 8,7 km/h (2 Bft) S-SW 211 0 min 25 W/m 13,6 C 13,4 C 14,5 km/h (3 Bft)
28.08.2015 07:15 14,7 C 93 % 1012,0 hPa 0,0 l/m 11,0 km/h (2 Bft) SW 215 0 min 21 W/m 13,6 C 12,3 C 16,1 km/h (3 Bft)
28.08.2015 07:18 14,7 C 93 % 1012,0 hPa 0,0 l/m 11,9 km/h (2 Bft) S-SW 207 0 min 21 W/m 13,6 C 12,0 C 17,7 km/h (3 Bft)
28.08.2015 07:21 14,7 C 93 % 1012,0 hPa 0,0 l/m 10,5 km/h (2 Bft) SW 224 0 min 23 W/m 13,6 C 12,6 C 14,5 km/h (3 Bft)
28.08.2015 07:24 14,7 C 93 % 1012,1 hPa 0,0 l/m 12,4 km/h (2 Bft) S-SW 192 0 min 30 W/m 13,6 C 11,8 C 20,9 km/h (4 Bft)
28.08.2015 07:27 14,7 C 93 % 1012,1 hPa 0,0 l/m 10,5 km/h (2 Bft) SW 223 0 min 35 W/m 13,6 C 12,6 C 16,1 km/h (3 Bft)
28.08.2015 07:30 14,8 C 93 % 1012,2 hPa 0,0 l/m 9,9 km/h (2 Bft) S-SW 211 0 min 37 W/m 13,7 C 12,9 C 16,1 km/h (3 Bft)
28.08.2015 07:33 14,7 C 93 % 1012,2 hPa 0,0 l/m 9,4 km/h (2 Bft) SW 225 0 min 28 W/m 13,6 C 13,1 C 14,5 km/h (3 Bft)
28.08.2015 07:36 14,8 C 93 % 1012,2 hPa 0,0 l/m 7,0 km/h (2 Bft) SW 217 0 min 25 W/m 13,7 C 14,5 C 11,3 km/h (2 Bft)
28.08.2015 07:39 14,8 C 93 % 1012,2 hPa 0,0 l/m 10,2 km/h (2 Bft) SW 230 0 min 30 W/m 13,7 C 12,8 C 19,3 km/h (3 Bft)
28.08.2015 07:42 14,8 C 93 % 1012,2 hPa 0,0 l/m 10,3 km/h (2 Bft) SW 225 0 min 39 W/m 13,7 C 12,8 C 17,7 km/h (3 Bft)
28.08.2015 07:45 14,8 C 93 % 1012,3 hPa 0,0 l/m 10,5 km/h (2 Bft) SW 221 0 min 37 W/m 13,7 C 12,7 C 16,1 km/h (3 Bft)
28.08.2015 07:48 14,8 C 93 % 1012,3 hPa 0,0 l/m 10,3 km/h (2 Bft) W-SW 251 0 min 37 W/m 13,7 C 12,8 C 17,7 km/h (3 Bft)
28.08.2015 07:51 14,8 C 93 % 1012,4 hPa 0,0 l/m 10,0 km/h (2 Bft) SW 215 0 min 58 W/m 13,7 C 12,9 C 17,7 km/h (3 Bft)
28.08.2015 07:54 14,8 C 93 % 1012,5 hPa 0,0 l/m 11,4 km/h (2 Bft) S-SW 210 0 min 33 W/m 13,7 C 12,3 C 16,1 km/h (3 Bft)
28.08.2015 07:57 14,8 C 93 % 1012,5 hPa 0,0 l/m 11,5 km/h (2 Bft) W-SW 244 0 min 49 W/m 13,7 C 12,2 C 16,1 km/h (3 Bft)
28.08.2015 08:00 14,8 C 93 % 1012,5 hPa 0,0 l/m 12,7 km/h (3 Bft) W-SW 238 0 min 72 W/m 13,7 C 11,8 C 20,9 km/h (4 Bft)
28.08.2015 08:03 14,8 C 93 % 1012,6 hPa 0,0 l/m 14,1 km/h (3 Bft) S-SW 211 0 min 56 W/m 13,7 C 11,3 C 19,3 km/h (3 Bft)
28.08.2015 08:06 14,8 C 93 % 1012,6 hPa 0,0 l/m 13,0 km/h (3 Bft) SW 223 0 min 54 W/m 13,7 C 11,7 C 20,9 km/h (4 Bft)
28.08.2015 08:09 14,8 C 93 % 1012,7 hPa 0,0 l/m 12,3 km/h (2 Bft) W-SW 239 0 min 58 W/m 13,7 C 11,9 C 20,9 km/h (4 Bft)
28.08.2015 08:12 14,9 C 93 % 1012,7 hPa 0,0 l/m 10,6 km/h (2 Bft) SW 233 0 min 51 W/m 13,8 C 12,7 C 16,1 km/h (3 Bft)
28.08.2015 08:15 14,9 C 93 % 1012,7 hPa 0,0 l/m 10,9 km/h (2 Bft) W-SW 243 0 min 60 W/m 13,8 C 12,6 C 17,7 km/h (3 Bft)
28.08.2015 08:18 14,9 C 93 % 1012,8 hPa 0,0 l/m 13,7 km/h (3 Bft) S-SW 211 0 min 49 W/m 13,8 C 11,5 C 20,9 km/h (4 Bft)
28.08.2015 08:21 14,9 C 93 % 1012,8 hPa 0,0 l/m 14,0 km/h (3 Bft) SW 220 0 min 44 W/m 13,8 C 11,4 C 19,3 km/h (3 Bft)
28.08.2015 08:24 14,9 C 93 % 1012,8 hPa 0,0 l/m 9,9 km/h (2 Bft) S-SW 200 0 min 42 W/m 13,8 C 13,1 C 17,7 km/h (3 Bft)
28.08.2015 08:27 14,9 C 93 % 1012,9 hPa 0,0 l/m 14,4 km/h (3 Bft) SW 221 0 min 60 W/m 13,8 C 11,3 C 24,1 km/h (4 Bft)
28.08.2015 08:30 14,9 C 93 % 1012,9 hPa 0,0 l/m 13,5 km/h (3 Bft) S-SW 201 0 min 74 W/m 13,8 C 11,6 C 19,3 km/h (3 Bft)
28.08.2015 08:33 14,9 C 93 % 1013,0 hPa 0,0 l/m 13,2 km/h (3 Bft) SW 229 0 min 77 W/m 13,8 C 11,7 C 17,7 km/h (3 Bft)
28.08.2015 08:36 14,9 C 93 % 1013,0 hPa 0,0 l/m 12,9 km/h (3 Bft) W-SW 246 0 min 47 W/m 13,8 C 11,8 C 17,7 km/h (3 Bft)
28.08.2015 08:39 14,9 C 93 % 1013,0 hPa 0,0 l/m 11,8 km/h (2 Bft) SW 221 0 min 42 W/m 13,8 C 12,2 C 17,7 km/h (3 Bft)
28.08.2015 08:42 14,9 C 93 % 1013,1 hPa 0,0 l/m 11,1 km/h (2 Bft) SW 223 0 min 51 W/m 13,8 C 12,5 C 16,1 km/h (3 Bft)
28.08.2015 08:45 14,9 C 93 % 1013,1 hPa 0,0 l/m 11,5 km/h (2 Bft) W-SW 243 0 min 51 W/m 13,8 C 12,4 C 19,3 km/h (3 Bft)
28.08.2015 08:48 14,9 C 93 % 1013,1 hPa 0,0 l/m 11,1 km/h (2 Bft) S-SW 213 0 min 47 W/m 13,8 C 12,5 C 16,1 km/h (3 Bft)
28.08.2015 08:51 14,9 C 93 % 1013,2 hPa 0,0 l/m 12,0 km/h (2 Bft) W-SW 243 0 min 37 W/m 13,8 C 12,2 C 17,7 km/h (3 Bft)
28.08.2015 08:54 14,9 C 93 % 1013,2 hPa 0,0 l/m 11,0 km/h (2 Bft) SW 220 0 min 56 W/m 13,8 C 12,6 C 17,7 km/h (3 Bft)
28.08.2015 08:57 15,0 C 93 % 1013,2 hPa 0,0 l/m 10,6 km/h (2 Bft) S 178 0 min 77 W/m 13,9 C 12,9 C 19,3 km/h (3 Bft)
28.08.2015 09:00 15,1 C 93 % 1013,3 hPa 0,0 l/m 11,4 km/h (2 Bft) S-SW 205 0 min 86 W/m 14,0 C 12,6 C 22,5 km/h (4 Bft)
28.08.2015 09:03 15,1 C 93 % 1013,2 hPa 0,0 l/m 10,2 km/h (2 Bft) S-SW 210 0 min 63 W/m 14,0 C 13,1 C 19,3 km/h (3 Bft)
28.08.2015 09:06 15,2 C 92 % 1013,2 hPa 0,0 l/m 9,9 km/h (2 Bft) S-SW 210 0 min 79 W/m 13,9 C 13,4 C 14,5 km/h (3 Bft)
28.08.2015 09:09 15,2 C 93 % 1013,3 hPa 0,0 l/m 8,1 km/h (2 Bft) SW 227 0 min 67 W/m 14,1 C 14,3 C 12,9 km/h (3 Bft)
28.08.2015 09:12 15,2 C 92 % 1013,3 hPa 0,0 l/m 11,5 km/h (2 Bft) SW 229 0 min 109 W/m 13,9 C 12,7 C 17,7 km/h (3 Bft)
28.08.2015 09:15 15,3 C 92 % 1013,3 hPa 0,0 l/m 10,9 km/h (2 Bft) SW 229 0 min 105 W/m 14,0 C 13,1 C 19,3 km/h (3 Bft)
28.08.2015 09:18 15,3 C 92 % 1013,4 hPa 0,0 l/m 9,7 km/h (2 Bft) SW 234 0 min 120 W/m 14,0 C 13,6 C 14,5 km/h (3 Bft)
28.08.2015 09:21 15,4 C 92 % 1013,4 hPa 0,0 l/m 11,1 km/h (2 Bft) SW 225 0 min 93 W/m 14,1 C 13,1 C 16,1 km/h (3 Bft)
28.08.2015 09:24 15,4 C 91 % 1013,4 hPa 0,0 l/m 13,8 km/h (3 Bft) SW 223 0 min 105 W/m 13,9 C 12,1 C 22,5 km/h (4 Bft)
28.08.2015 09:27 15,4 C 91 % 1013,5 hPa 0,0 l/m 14,7 km/h (3 Bft) SW 221 0 min 98 W/m 13,9 C 11,8 C 20,9 km/h (4 Bft)
28.08.2015 09:30 15,4 C 91 % 1013,6 hPa 0,0 l/m 12,6 km/h (3 Bft) W-SW 244 0 min 91 W/m 13,9 C 12,5 C 20,9 km/h (4 Bft)
28.08.2015 09:33 15,5 C 91 % 1013,6 hPa 0,0 l/m 10,6 km/h (2 Bft) SW 226 0 min 70 W/m 14,0 C 13,4 C 20,9 km/h (4 Bft)
28.08.2015 09:36 15,6 C 91 % 1013,6 hPa 0,0 l/m 10,4 km/h (2 Bft) SW 216 0 min 114 W/m 14,1 C 13,6 C 19,3 km/h (3 Bft)
28.08.2015 09:39 15,6 C 91 % 1013,7 hPa 0,0 l/m 13,4 km/h (3 Bft) S-SW 204 0 min 114 W/m 14,1 C 12,5 C 20,9 km/h (4 Bft)
28.08.2015 09:42 15,6 C 91 % 1013,7 hPa 0,0 l/m 11,8 km/h (2 Bft) W-SW 245 0 min 120 W/m 14,1 C 13,0 C 17,7 km/h (3 Bft)
28.08.2015 09:45 15,7 C 91 % 1013,7 hPa 0,0 l/m 12,4 km/h (2 Bft) SW 219 0 min 125 W/m 14,2 C 12,9 C 19,3 km/h (3 Bft)
28.08.2015 09:48 15,8 C 90 % 1013,7 hPa 0,0 l/m 12,4 km/h (2 Bft) W-SW 246 0 min 137 W/m 14,2 C 13,0 C 19,3 km/h (3 Bft)
28.08.2015 09:51 15,8 C 90 % 1013,8 hPa 0,0 l/m 11,4 km/h (2 Bft) SW 234 0 min 207 W/m 14,2 C 13,4 C 16,1 km/h (3 Bft)
28.08.2015 09:54 15,9 C 89 % 1013,7 hPa 0,0 l/m 12,7 km/h (3 Bft) S-SW 211 0 min 200 W/m 14,1 C 13,1 C 17,7 km/h (3 Bft)
28.08.2015 09:57 16,0 C 89 % 1013,7 hPa 0,0 l/m 11,6 km/h (2 Bft) SW 231 0 min 120 W/m 14,2 C 13,6 C 17,7 km/h (3 Bft)
28.08.2015 10:00 16,1 C 89 % 1013,8 hPa 0,0 l/m 11,0 km/h (2 Bft) W-SW 241 0 min 199 W/m 14,3 C 13,9 C 17,7 km/h (3 Bft)
28.08.2015 10:03 16,2 C 89 % 1013,9 hPa 0,0 l/m 13,7 km/h (3 Bft) SW 231 0 min 213 W/m 14,4 C 13,1 C 20,9 km/h (4 Bft)
28.08.2015 10:06 16,2 C 89 % 1014,0 hPa 0,0 l/m 11,7 km/h (2 Bft) S-SW 211 0 min 221 W/m 14,4 C 13,8 C 16,1 km/h (3 Bft)
28.08.2015 10:09 16,4 C 88 % 1014,0 hPa 0,0 l/m 12,8 km/h (3 Bft) SW 227 3 min 543 W/m 14,4 C 13,6 C 24,1 km/h (4 Bft)
28.08.2015 10:12 16,8 C 87 % 1014,1 hPa 0,0 l/m 11,6 km/h (2 Bft) SW 214 3 min 283 W/m 14,6 C 14,5 C 16,1 km/h (3 Bft)
28.08.2015 10:15 16,8 C 86 % 1014,1 hPa 0,0 l/m 8,4 km/h (2 Bft) SW 231 0 min 200 W/m 14,4 C 15,8 C 14,5 km/h (3 Bft)
28.08.2015 10:18 16,8 C 87 % 1014,1 hPa 0,0 l/m 10,2 km/h (2 Bft) S-SW 194 3 min 519 W/m 14,6 C 15,0 C 19,3 km/h (3 Bft)
28.08.2015 10:21 16,9 C 85 % 1014,1 hPa 0,0 l/m 14,3 km/h (3 Bft) SW 229 3 min 462 W/m 14,4 C 13,7 C 20,9 km/h (4 Bft)
28.08.2015 10:24 17,0 C 86 % 1014,1 hPa 0,0 l/m 14,5 km/h (3 Bft) W-SW 238 3 min 357 W/m 14,6 C 13,8 C 25,7 km/h (4 Bft)
28.08.2015 10:27 17,1 C 85 % 1014,2 hPa 0,0 l/m 15,0 km/h (3 Bft) SW 215 3 min 485 W/m 14,6 C 13,7 C 24,1 km/h (4 Bft)
28.08.2015 10:30 17,0 C 84 % 1014,2 hPa 0,0 l/m 15,5 km/h (3 Bft) SW 217 0 min 130 W/m 14,3 C 13,5 C 27,4 km/h (5 Bft)
28.08.2015 10:33 16,8 C 85 % 1014,2 hPa 0,0 l/m 13,9 km/h (3 Bft) W-SW 238 0 min 234 W/m 14,3 C 13,7 C 20,9 km/h (4 Bft)
28.08.2015 10:36 16,7 C 86 % 1014,2 hPa 0,0 l/m 12,5 km/h (2 Bft) SW 233 3 min 360 W/m 14,3 C 14,1 C 20,9 km/h (4 Bft)
28.08.2015 10:39 16,9 C 86 % 1014,2 hPa 0,0 l/m 12,9 km/h (3 Bft) SW 220 3 min 524 W/m 14,5 C 14,2 C 20,9 km/h (4 Bft)
28.08.2015 10:42 16,9 C 85 % 1014,2 hPa 0,0 l/m 13,3 km/h (3 Bft) W-SW 257 0 min 260 W/m 14,4 C 14,0 C 20,9 km/h (4 Bft)
28.08.2015 10:45 16,9 C 86 % 1014,3 hPa 0,0 l/m 12,6 km/h (3 Bft) W-SW 249 0 min 234 W/m 14,5 C 14,3 C 20,9 km/h (4 Bft)
28.08.2015 10:48 16,9 C 85 % 1014,3 hPa 0,0 l/m 13,9 km/h (3 Bft) W-SW 247 3 min 461 W/m 14,4 C 13,8 C 20,9 km/h (4 Bft)
28.08.2015 10:51 17,1 C 85 % 1014,4 hPa 0,0 l/m 13,0 km/h (3 Bft) S-SW 202 0 min 250 W/m 14,6 C 14,4 C 22,5 km/h (4 Bft)
28.08.2015 10:54 17,1 C 84 % 1014,4 hPa 0,0 l/m 17,4 km/h (3 Bft) SW 221 0 min 250 W/m 14,4 C 13,1 C 24,1 km/h (4 Bft)
28.08.2015 10:57 17,2 C 84 % 1014,4 hPa 0,0 l/m 16,8 km/h (3 Bft) SW 232 3 min 598 W/m 14,5 C 13,4 C 22,5 km/h (4 Bft)
28.08.2015 11:00 17,3 C 83 % 1014,4 hPa 0,0 l/m 14,1 km/h (3 Bft) SW 223 0 min 274 W/m 14,4 C 14,2 C 20,9 km/h (4 Bft)
28.08.2015 11:03 17,4 C 82 % 1014,4 hPa 0,0 l/m 14,3 km/h (3 Bft) S 188 3 min 675 W/m 14,3 C 14,3 C 22,5 km/h (4 Bft)
28.08.2015 11:06 17,6 C 82 % 1014,5 hPa 0,0 l/m 11,9 km/h (2 Bft) SW 216 0 min 213 W/m 14,5 C 15,3 C 20,9 km/h (4 Bft)
28.08.2015 11:09 17,6 C 83 % 1014,5 hPa 0,0 l/m 10,3 km/h (2 Bft) S-SW 212 3 min 323 W/m 14,7 C 15,9 C 17,7 km/h (3 Bft)
28.08.2015 11:12 17,6 C 82 % 1014,5 hPa 0,0 l/m 13,9 km/h (3 Bft) S-SW 201 0 min 244 W/m 14,5 C 14,7 C 19,3 km/h (3 Bft)
28.08.2015 11:15 17,4 C 83 % 1014,6 hPa 0,0 l/m 12,9 km/h (3 Bft) W-SW 240 3 min 330 W/m 14,5 C 14,7 C 19,3 km/h (3 Bft)
28.08.2015 11:18 17,4 C 83 % 1014,7 hPa 0,0 l/m 13,8 km/h (3 Bft) SW 231 0 min 274 W/m 14,5 C 14,5 C 19,3 km/h (3 Bft)
28.08.2015 11:21 17,3 C 82 % 1014,6 hPa 0,0 l/m 14,3 km/h (3 Bft) SW 223 3 min 378 W/m 14,2 C 14,2 C 22,5 km/h (4 Bft)
28.08.2015 11:24 17,4 C 82 % 1014,7 hPa 0,0 l/m 14,3 km/h (3 Bft) S-SW 196 3 min 432 W/m 14,3 C 14,3 C 22,5 km/h (4 Bft)
28.08.2015 11:27 17,4 C 82 % 1014,7 hPa 0,0 l/m 16,7 km/h (3 Bft) SW 223 0 min 276 W/m 14,3 C 13,6 C 25,7 km/h (4 Bft)
28.08.2015 11:30 17,2 C 83 % 1014,8 hPa 0,0 l/m 15,5 km/h (3 Bft) SW 215 0 min 244 W/m 14,3 C 13,7 C 25,7 km/h (4 Bft)
28.08.2015 11:33 17,1 C 83 % 1014,8 hPa 0,0 l/m 15,8 km/h (3 Bft) SW 226 0 min 165 W/m 14,2 C 13,5 C 24,1 km/h (4 Bft)
28.08.2015 11:36 17,0 C 85 % 1014,8 hPa 0,0 l/m 17,0 km/h (3 Bft) S 189 0 min 211 W/m 14,5 C 13,1 C 22,5 km/h (4 Bft)
28.08.2015 11:39 17,2 C 84 % 1014,8 hPa 0,0 l/m 13,1 km/h (3 Bft) S-SW 204 3 min 490 W/m 14,5 C 14,4 C 19,3 km/h (3 Bft)
28.08.2015 11:42 17,2 C 83 % 1014,9 hPa 0,0 l/m 13,6 km/h (3 Bft) S-SW 209 0 min 162 W/m 14,3 C 14,3 C 25,7 km/h (4 Bft)
28.08.2015 11:45 17,1 C 83 % 1014,9 hPa 0,0 l/m 12,6 km/h (3 Bft) S-SW 192 0 min 232 W/m 14,2 C 14,5 C 19,3 km/h (3 Bft)
28.08.2015 11:48 17,1 C 83 % 1015,0 hPa 0,0 l/m 15,6 km/h (3 Bft) SW 227 0 min 232 W/m 14,2 C 13,6 C 22,5 km/h (4 Bft)
28.08.2015 11:51 17,2 C 82 % 1015,0 hPa 0,0 l/m 15,7 km/h (3 Bft) SW 231 0 min 127 W/m 14,1 C 13,7 C 24,1 km/h (4 Bft)
28.08.2015 11:54 17,0 C 83 % 1015,0 hPa 0,0 l/m 14,1 km/h (3 Bft) SW 219 0 min 163 W/m 14,1 C 13,9 C 20,9 km/h (4 Bft)
28.08.2015 11:57 17,0 C 83 % 1015,1 hPa 0,0 l/m 16,8 km/h (3 Bft) SW 218 0 min 302 W/m 14,1 C 13,1 C 24,1 km/h (4 Bft)
28.08.2015 12:00 17,2 C 84 % 1015,0 hPa 0,0 l/m 13,6 km/h (3 Bft) W-SW 244 0 min 327 W/m 14,5 C 14,3 C 24,1 km/h (4 Bft)
28.08.2015 12:03 17,6 C 82 % 1015,0 hPa 0,0 l/m 12,7 km/h (3 Bft) SW 218 3 min 396 W/m 14,5 C 15,0 C 20,9 km/h (4 Bft)
28.08.2015 12:06 17,8 C 81 % 1015,0 hPa 0,0 l/m 12,7 km/h (3 Bft) SW 229 0 min 83 W/m 14,5 C 15,3 C 24,1 km/h (4 Bft)
28.08.2015 12:09 17,4 C 80 % 1015,0 hPa 0,0 l/m 16,4 km/h (3 Bft) S-SW 207 0 min 181 W/m 13,9 C 13,7 C 29,0 km/h (5 Bft)
28.08.2015 12:12 17,4 C 83 % 1015,0 hPa 0,0 l/m 11,8 km/h (2 Bft) W-SW 248 3 min 615 W/m 14,5 C 15,1 C 16,1 km/h (3 Bft)
28.08.2015 12:15 17,9 C 82 % 1015,0 hPa 0,0 l/m 12,7 km/h (3 Bft) SW 225 3 min 568 W/m 14,8 C 15,4 C 22,5 km/h (4 Bft)
28.08.2015 12:18 18,2 C 80 % 1014,9 hPa 0,0 l/m 12,7 km/h (3 Bft) S-SO 166 3 min 606 W/m 14,7 C 15,7 C 20,9 km/h (4 Bft)
28.08.2015 12:21 18,6 C 79 % 1014,9 hPa 0,0 l/m 12,0 km/h (2 Bft) S-SW 198 3 min 585 W/m 14,9 C 16,4 C 22,5 km/h (4 Bft)
28.08.2015 12:24 18,3 C 76 % 1015,0 hPa 0,0 l/m 12,9 km/h (3 Bft) SW 228 3 min 545 W/m 14,0 C 15,8 C 19,3 km/h (3 Bft)
28.08.2015 12:27 18,4 C 78 % 1015,0 hPa 0,0 l/m 12,0 km/h (2 Bft) SW 221 3 min 559 W/m 14,5 C 16,2 C 17,7 km/h (3 Bft)
28.08.2015 12:30 18,6 C 77 % 1015,0 hPa 0,0 l/m 14,6 km/h (3 Bft) S 190 3 min 563 W/m 14,5 C 15,7 C 20,9 km/h (4 Bft)
28.08.2015 12:33 18,7 C 77 % 1015,1 hPa 0,0 l/m 14,5 km/h (3 Bft) W-SW 248 3 min 564 W/m 14,6 C 15,8 C 20,9 km/h (4 Bft)
28.08.2015 12:36 18,6 C 77 % 1015,1 hPa 0,0 l/m 15,2 km/h (3 Bft) SW 236 0 min 271 W/m 14,5 C 15,5 C 22,5 km/h (4 Bft)
28.08.2015 12:39 18,7 C 78 % 1015,1 hPa 0,0 l/m 12,0 km/h (2 Bft) W-SW 240 3 min 621 W/m 14,8 C 16,5 C 20,9 km/h (4 Bft)
28.08.2015 12:42 18,7 C 77 % 1015,1 hPa 0,0 l/m 12,9 km/h (3 Bft) SW 227 0 min 167 W/m 14,6 C 16,3 C 19,3 km/h (3 Bft)
28.08.2015 12:45 18,3 C 77 % 1015,2 hPa 0,0 l/m 15,2 km/h (3 Bft) W-SW 238 0 min 197 W/m 14,2 C 15,1 C 24,1 km/h (4 Bft)
28.08.2015 12:48 18,1 C 77 % 1015,2 hPa 0,0 l/m 16,2 km/h (3 Bft) SW 229 0 min 197 W/m 14,0 C 14,6 C 25,7 km/h (4 Bft)
28.08.2015 12:51 18,2 C 79 % 1015,2 hPa 0,0 l/m 13,7 km/h (3 Bft) S-SW 213 0 min 186 W/m 14,5 C 15,4 C 22,5 km/h (4 Bft)
28.08.2015 12:54 18,4 C 78 % 1015,3 hPa 0,0 l/m 13,1 km/h (3 Bft) SW 221 3 min 698 W/m 14,5 C 15,8 C 22,5 km/h (4 Bft)
28.08.2015 12:57 18,6 C 79 % 1015,3 hPa 0,0 l/m 12,7 km/h (3 Bft) SW 227 3 min 698 W/m 14,9 C 16,2 C 19,3 km/h (3 Bft)
28.08.2015 13:00 18,6 C 76 % 1015,3 hPa 0,0 l/m 14,9 km/h (3 Bft) SW 221 3 min 615 W/m 14,3 C 15,6 C 25,7 km/h (4 Bft)
28.08.2015 13:03 18,6 C 76 % 1015,3 hPa 0,0 l/m 14,6 km/h (3 Bft) SW 232 3 min 554 W/m 14,3 C 15,7 C 24,1 km/h (4 Bft)
28.08.2015 13:06 18,4 C 77 % 1015,3 hPa 0,0 l/m 15,0 km/h (3 Bft) S-SW 209 3 min 596 W/m 14,3 C 15,3 C 25,7 km/h (4 Bft)
28.08.2015 13:09 18,5 C 78 % 1015,4 hPa 0,0 l/m 13,5 km/h (3 Bft) SW 221 3 min 679 W/m 14,6 C 15,8 C 29,0 km/h (5 Bft)
28.08.2015 13:12 19,1 C 78 % 1015,4 hPa 0,0 l/m 12,5 km/h (2 Bft) SW 218 3 min 728 W/m 15,2 C 16,8 C 20,9 km/h (4 Bft)
28.08.2015 13:15 19,0 C 75 % 1015,4 hPa 0,0 l/m 13,1 km/h (3 Bft) SW 215 0 min 223 W/m 14,5 C 16,6 C 19,3 km/h (3 Bft)
28.08.2015 13:18 18,7 C 76 % 1015,4 hPa 0,0 l/m 11,2 km/h (2 Bft) W-SW 255 0 min 188 W/m 14,4 C 16,8 C 19,3 km/h (3 Bft)
28.08.2015 13:21 18,8 C 76 % 1015,5 hPa 0,0 l/m 14,5 km/h (3 Bft) S-SW 209 0 min 199 W/m 14,5 C 15,9 C 20,9 km/h (4 Bft)
28.08.2015 13:24 18,8 C 74 % 1015,5 hPa 0,0 l/m 16,4 km/h (3 Bft) W-SW 254 3 min 689 W/m 14,1 C 15,4 C 22,5 km/h (4 Bft)
28.08.2015 13:27 19,1 C 73 % 1015,6 hPa 0,0 l/m 11,8 km/h (2 Bft) SW 215 3 min 654 W/m 14,1 C 17,1 C 19,3 km/h (3 Bft)
28.08.2015 13:30 19,3 C 73 % 1015,6 hPa 0,0 l/m 12,0 km/h (2 Bft) W-SW 242 3 min 684 W/m 14,3 C 17,2 C 19,3 km/h (3 Bft)
28.08.2015 13:33 19,4 C 73 % 1015,5 hPa 0,0 l/m 13,3 km/h (3 Bft) SW 221 3 min 684 W/m 14,4 C 17,0 C 22,5 km/h (4 Bft)
28.08.2015 13:36 19,3 C 73 % 1015,6 hPa 0,0 l/m 15,7 km/h (3 Bft) SW 217 3 min 698 W/m 14,3 C 16,2 C 24,1 km/h (4 Bft)
28.08.2015 13:39 19,3 C 73 % 1015,6 hPa 0,0 l/m 14,2 km/h (3 Bft) S-SW 213 3 min 712 W/m 14,3 C 16,6 C 20,9 km/h (4 Bft)
28.08.2015 13:42 19,2 C 74 % 1015,6 hPa 0,0 l/m 12,0 km/h (2 Bft) SW 225 0 min 271 W/m 14,4 C 17,1 C 20,9 km/h (4 Bft)
28.08.2015 13:45 18,8 C 75 % 1015,7 hPa 0,0 l/m 14,9 km/h (3 Bft) W-SW 238 3 min 633 W/m 14,3 C 15,8 C 22,5 km/h (4 Bft)
28.08.2015 13:48 18,8 C 75 % 1015,6 hPa 0,0 l/m 14,5 km/h (3 Bft) SW 223 0 min 322 W/m 14,3 C 15,9 C 24,1 km/h (4 Bft)
28.08.2015 13:51 18,6 C 75 % 1015,7 hPa 0,0 l/m 15,4 km/h (3 Bft) W-SW 250 0 min 174 W/m 14,1 C 15,4 C 25,7 km/h (4 Bft)
28.08.2015 13:54 18,7 C 76 % 1015,7 hPa 0,0 l/m 12,6 km/h (3 Bft) SW 223 0 min 185 W/m 14,4 C 16,3 C 19,3 km/h (3 Bft)
28.08.2015 13:57 18,9 C 76 % 1015,7 hPa 0,0 l/m 12,3 km/h (2 Bft) SW 219 0 min 185 W/m 14,6 C 16,7 C 20,9 km/h (4 Bft)
28.08.2015 14:00 18,9 C 75 % 1015,8 hPa 0,0 l/m 14,6 km/h (3 Bft) SW 223 3 min 701 W/m 14,4 C 16,0 C 24,1 km/h (4 Bft)
28.08.2015 14:03 19,1 C 73 % 1015,7 hPa 0,0 l/m 12,0 km/h (2 Bft) W 280 3 min 715 W/m 14,1 C 17,0 C 20,9 km/h (4 Bft)
28.08.2015 14:06 19,4 C 74 % 1015,6 hPa 0,0 l/m 12,2 km/h (2 Bft) W-SW 238 3 min 721 W/m 14,6 C 17,3 C 22,5 km/h (4 Bft)
28.08.2015 14:09 19,5 C 73 % 1015,6 hPa 0,0 l/m 14,2 km/h (3 Bft) S-SW 192 3 min 666 W/m 14,5 C 16,8 C 22,5 km/h (4 Bft)
28.08.2015 14:12 19,5 C 73 % 1015,7 hPa 0,0 l/m 15,6 km/h (3 Bft) W-SW 238 3 min 666 W/m 14,5 C 16,5 C 22,5 km/h (4 Bft)
28.08.2015 14:15 19,4 C 70 % 1015,7 hPa 0,0 l/m 14,9 km/h (3 Bft) W-SW 250 3 min 666 W/m 13,8 C 16,5 C 22,5 km/h (4 Bft)
28.08.2015 14:18 19,3 C 72 % 1015,6 hPa 0,0 l/m 12,0 km/h (2 Bft) SW 234 3 min 666 W/m 14,1 C 17,2 C 20,9 km/h (4 Bft)
28.08.2015 14:21 19,4 C 71 % 1015,7 hPa 0,0 l/m 14,3 km/h (3 Bft) SW 225 3 min 666 W/m 14,0 C 16,7 C 19,3 km/h (3 Bft)
28.08.2015 14:24 19,3 C 72 % 1015,7 hPa 0,0 l/m 13,1 km/h (3 Bft) SW 227 3 min 666 W/m 14,1 C 16,9 C 22,5 km/h (4 Bft)
28.08.2015 14:27 19,4 C 75 % 1015,7 hPa 0,0 l/m 14,5 km/h (3 Bft) SW 218 3 min 707 W/m 14,8 C 16,6 C 25,7 km/h (4 Bft)
28.08.2015 14:30 19,6 C 73 % 1015,7 hPa 0,0 l/m 13,8 km/h (3 Bft) S-SW 210 3 min 661 W/m 14,6 C 17,1 C 20,9 km/h (4 Bft)
28.08.2015 14:33 19,7 C 72 % 1015,7 hPa 0,0 l/m 14,7 km/h (3 Bft) SW 217 3 min 647 W/m 14,5 C 17,0 C 25,7 km/h (4 Bft)
28.08.2015 14:36 19,7 C 71 % 1015,7 hPa 0,0 l/m 17,3 km/h (3 Bft) SW 219 3 min 622 W/m 14,3 C 16,4 C 24,1 km/h (4 Bft)
28.08.2015 14:39 19,8 C 71 % 1015,7 hPa 0,0 l/m 14,9 km/h (3 Bft) SW 234 3 min 628 W/m 14,4 C 17,0 C 22,5 km/h (4 Bft)
28.08.2015 14:42 19,7 C 71 % 1015,7 hPa 0,0 l/m 13,4 km/h (3 Bft) SW 215 3 min 670 W/m 14,3 C 17,3 C 20,9 km/h (4 Bft)
28.08.2015 14:45 19,7 C 70 % 1015,8 hPa 0,0 l/m 18,4 km/h (3 Bft) SW 224 3 min 636 W/m 14,1 C 16,1 C 25,7 km/h (4 Bft)
28.08.2015 14:48 19,6 C 70 % 1015,7 hPa 0,0 l/m 15,8 km/h (3 Bft) W-SW 245 3 min 633 W/m 14,0 C 16,6 C 27,4 km/h (5 Bft)
28.08.2015 14:51 19,7 C 71 % 1015,7 hPa 0,0 l/m 15,7 km/h (3 Bft) S-SW 211 3 min 626 W/m 14,3 C 16,7 C 24,1 km/h (4 Bft)
28.08.2015 14:54 19,7 C 70 % 1015,8 hPa 0,0 l/m 15,8 km/h (3 Bft) S 169 3 min 629 W/m 14,1 C 16,7 C 24,1 km/h (4 Bft)
28.08.2015 14:57 19,8 C 70 % 1015,8 hPa 0,0 l/m 13,5 km/h (3 Bft) S-SW 195 3 min 619 W/m 14,2 C 17,4 C 19,3 km/h (3 Bft)
28.08.2015 15:00 20,2 C 69 % 1015,8 hPa 0,0 l/m 11,7 km/h (2 Bft) S-SW 211 3 min 629 W/m 14,3 C 18,3 C 22,5 km/h (4 Bft)
28.08.2015 15:03 20,3 C 67 % 1015,9 hPa 0,0 l/m 12,2 km/h (2 Bft) SW 221 3 min 622 W/m 14,0 C 18,3 C 22,5 km/h (4 Bft)
28.08.2015 15:06 20,3 C 68 % 1015,8 hPa 0,0 l/m 14,5 km/h (3 Bft) SW 233 3 min 628 W/m 14,2 C 17,7 C 25,7 km/h (4 Bft)
28.08.2015 15:09 20,0 C 70 % 1015,8 hPa 0,0 l/m 15,0 km/h (3 Bft) W-SW 241 3 min 626 W/m 14,4 C 17,2 C 25,7 km/h (4 Bft)
28.08.2015 15:12 20,0 C 70 % 1015,9 hPa 0,0 l/m 14,0 km/h (3 Bft) SW 217 3 min 578 W/m 14,4 C 17,5 C 22,5 km/h (4 Bft)
28.08.2015 15:15 19,9 C 69 % 1016,0 hPa 0,0 l/m 15,9 km/h (3 Bft) SW 219 0 min 200 W/m 14,0 C 16,9 C 25,7 km/h (4 Bft)
28.08.2015 15:18 19,9 C 71 % 1016,0 hPa 0,0 l/m 13,1 km/h (3 Bft) S-SW 206 0 min 200 W/m 14,5 C 17,6 C 20,9 km/h (4 Bft)
28.08.2015 15:21 19,8 C 69 % 1016,0 hPa 0,0 l/m 11,3 km/h (2 Bft) SW 224 3 min 520 W/m 13,9 C 18,0 C 17,7 km/h (3 Bft)
28.08.2015 15:24 20,1 C 68 % 1016,0 hPa 0,0 l/m 15,0 km/h (3 Bft) W-SW 244 3 min 506 W/m 14,0 C 17,4 C 24,1 km/h (4 Bft)
28.08.2015 15:27 20,2 C 67 % 1016,1 hPa 0,0 l/m 12,9 km/h (3 Bft) S-SW 205 3 min 482 W/m 13,9 C 18,0 C 20,9 km/h (4 Bft)
28.08.2015 15:30 20,2 C 68 % 1016,1 hPa 0,0 l/m 12,9 km/h (3 Bft) SW 223 3 min 476 W/m 14,1 C 18,0 C 24,1 km/h (4 Bft)
28.08.2015 15:33 20,2 C 67 % 1016,1 hPa 0,0 l/m 12,9 km/h (3 Bft) SW 221 3 min 548 W/m 13,9 C 18,0 C 22,5 km/h (4 Bft)
28.08.2015 15:36 20,2 C 67 % 1016,1 hPa 0,0 l/m 10,4 km/h (2 Bft) S-SW 211 0 min 214 W/m 13,9 C 18,7 C 22,5 km/h (4 Bft)
28.08.2015 15:39 20,0 C 67 % 1016,2 hPa 0,0 l/m 12,0 km/h (2 Bft) W-SW 255 0 min 216 W/m 13,7 C 18,0 C 19,3 km/h (3 Bft)
28.08.2015 15:42 19,8 C 69 % 1016,2 hPa 0,0 l/m 12,1 km/h (2 Bft) SW 214 0 min 227 W/m 13,9 C 17,8 C 17,7 km/h (3 Bft)
28.08.2015 15:45 19,6 C 69 % 1016,2 hPa 0,0 l/m 12,7 km/h (3 Bft) S-SW 205 3 min 341 W/m 13,8 C 17,4 C 20,9 km/h (4 Bft)
28.08.2015 15:48 19,4 C 70 % 1016,2 hPa 0,0 l/m 11,8 km/h (2 Bft) W-SW 248 0 min 156 W/m 13,8 C 17,4 C 22,5 km/h (4 Bft)
28.08.2015 15:51 19,3 C 69 % 1016,2 hPa 0,0 l/m 10,8 km/h (2 Bft) W-SW 252 0 min 79 W/m 13,5 C 17,6 C 19,3 km/h (3 Bft)
28.08.2015 15:54 19,2 C 71 % 1016,2 hPa 0,0 l/m 9,1 km/h (2 Bft) SW 236 0 min 54 W/m 13,8 C 18,1 C 16,1 km/h (3 Bft)
28.08.2015 15:57 19,0 C 71 % 1016,2 hPa 0,0 l/m 10,1 km/h (2 Bft) SW 234 0 min 42 W/m 13,6 C 17,5 C 14,5 km/h (3 Bft)
28.08.2015 16:00 18,7 C 76 % 1016,3 hPa 0,0 l/m 8,2 km/h (2 Bft) W 260 0 min 32 W/m 14,4 C 17,9 C 12,9 km/h (3 Bft)
28.08.2015 16:03 18,3 C 80 % 1016,3 hPa 0,0 l/m 6,3 km/h (2 Bft) W-SW 246 0 min 26 W/m 14,8 C 18,3 C 11,3 km/h (2 Bft)
28.08.2015 16:06 17,9 C 80 % 1016,4 hPa 0,8 l/m 10,0 km/h (2 Bft) S-SW 198 0 min 23 W/m 14,4 C 16,3 C 16,1 km/h (3 Bft)
28.08.2015 16:09 17,3 C 80 % 1016,3 hPa 0,4 l/m 9,1 km/h (2 Bft) S-SW 213 0 min 25 W/m 13,8 C 16,0 C 16,1 km/h (3 Bft)
28.08.2015 16:12 17,0 C 81 % 1016,4 hPa 0,0 l/m 8,0 km/h (2 Bft) S-SW 212 0 min 23 W/m 13,7 C 16,2 C 11,3 km/h (2 Bft)
28.08.2015 16:15 16,8 C 85 % 1016,4 hPa 0,0 l/m 4,7 km/h (1 Bft) S-SW 205 0 min 35 W/m 14,3 C 16,8 C 8,0 km/h (2 Bft)
28.08.2015 16:18 16,7 C 85 % 1016,5 hPa 0,0 l/m 5,7 km/h (2 Bft) SW 216 0 min 47 W/m 14,2 C 16,7 C 8,0 km/h (2 Bft)
28.08.2015 16:21 16,7 C 87 % 1016,5 hPa 0,2 l/m 5,7 km/h (2 Bft) SW 216 0 min 62 W/m 14,5 C 16,7 C 11,3 km/h (2 Bft)
28.08.2015 16:24 16,6 C 88 % 1016,5 hPa 0,2 l/m 4,9 km/h (1 Bft) W-SW 248 0 min 62 W/m 14,6 C 16,6 C 11,3 km/h (2 Bft)
28.08.2015 16:27 16,6 C 90 % 1016,5 hPa 0,0 l/m 3,4 km/h (1 Bft) SW 215 0 min 86 W/m 15,0 C 16,6 C 6,4 km/h (2 Bft)
28.08.2015 16:30 16,7 C 91 % 1016,5 hPa 0,0 l/m 4,4 km/h (1 Bft) S-SW 210 0 min 144 W/m 15,2 C 16,7 C 8,0 km/h (2 Bft)
28.08.2015 16:33 16,9 C 93 % 1016,5 hPa 0,0 l/m 4,4 km/h (1 Bft) W-SW 255 0 min 195 W/m 15,8 C 16,9 C 9,7 km/h (2 Bft)
28.08.2015 16:36 17,2 C 91 % 1016,5 hPa 0,0 l/m 4,8 km/h (1 Bft) W-SW 239 0 min 167 W/m 15,7 C 17,2 C 9,7 km/h (2 Bft)
28.08.2015 16:39 17,4 C 91 % 1016,5 hPa 0,0 l/m 4,8 km/h (1 Bft) W 276 0 min 134 W/m 15,9 C 17,4 C 12,9 km/h (3 Bft)
28.08.2015 16:42 17,7 C 91 % 1016,5 hPa 0,0 l/m 4,2 km/h (1 Bft) W-SW 248 3 min 436 W/m 16,2 C 17,7 C 9,7 km/h (2 Bft)
28.08.2015 16:45 18,1 C 89 % 1016,5 hPa 0,0 l/m 4,1 km/h (1 Bft) W-NW 296 0 min 165 W/m 16,3 C 18,1 C 11,3 km/h (2 Bft)
28.08.2015 16:48 18,1 C 88 % 1016,5 hPa 0,0 l/m 4,2 km/h (1 Bft) W-NW 298 0 min 114 W/m 16,1 C 18,1 C 9,7 km/h (2 Bft)
28.08.2015 16:51 17,9 C 86 % 1016,4 hPa 0,0 l/m 5,7 km/h (2 Bft) W-NW 286 0 min 114 W/m 15,5 C 17,9 C 12,9 km/h (3 Bft)
28.08.2015 16:54 17,7 C 87 % 1016,5 hPa 0,0 l/m 4,7 km/h (1 Bft) W 274 0 min 95 W/m 15,5 C 17,7 C 11,3 km/h (2 Bft)
28.08.2015 16:57 17,6 C 85 % 1016,5 hPa 0,0 l/m 4,4 km/h (1 Bft) W-SW 247 0 min 116 W/m 15,0 C 17,6 C 9,7 km/h (2 Bft)
28.08.2015 17:00 17,5 C 83 % 1016,5 hPa 0,0 l/m 4,6 km/h (1 Bft) SW 231 0 min 169 W/m 14,6 C 17,5 C 12,9 km/h (3 Bft)
28.08.2015 17:03 17,4 C 83 % 1016,5 hPa 0,0 l/m 4,3 km/h (1 Bft) W 279 0 min 158 W/m 14,5 C 17,4 C 9,7 km/h (2 Bft)
28.08.2015 17:06 17,5 C 82 % 1016,5 hPa 0,0 l/m 5,7 km/h (2 Bft) W-NW 301 0 min 137 W/m 14,4 C 17,5 C 11,3 km/h (2 Bft)
28.08.2015 17:09 17,5 C 83 % 1016,5 hPa 0,0 l/m 4,6 km/h (1 Bft) W 264 0 min 125 W/m 14,6 C 17,5 C 9,7 km/h (2 Bft)
28.08.2015 17:12 17,6 C 81 % 1016,6 hPa 0,0 l/m 4,0 km/h (1 Bft) W 267 0 min 137 W/m 14,3 C 17,6 C 8,0 km/h (2 Bft)
28.08.2015 17:15 17,6 C 81 % 1016,5 hPa 0,0 l/m 4,9 km/h (1 Bft) W 260 0 min 132 W/m 14,3 C 17,6 C 9,7 km/h (2 Bft)
28.08.2015 17:18 17,7 C 81 % 1016,5 hPa 0,0 l/m 5,7 km/h (2 Bft) W-SW 238 0 min 90 W/m 14,4 C 17,7 C 11,3 km/h (2 Bft)
28.08.2015 17:21 17,7 C 79 % 1016,5 hPa 0,0 l/m 6,2 km/h (2 Bft) SW 225 0 min 58 W/m 14,0 C 17,7 C 12,9 km/h (3 Bft)
28.08.2015 17:24 17,6 C 76 % 1016,6 hPa 0,0 l/m 7,5 km/h (2 Bft) S-SW 213 0 min 35 W/m 13,3 C 17,1 C 14,5 km/h (3 Bft)
28.08.2015 17:27 17,6 C 75 % 1016,7 hPa 0,0 l/m 7,1 km/h (2 Bft) W 259 0 min 25 W/m 13,1 C 17,3 C 16,1 km/h (3 Bft)
28.08.2015 17:30 17,5 C 78 % 1016,7 hPa 0,0 l/m 3,3 km/h (1 Bft) W-SW 258 0 min 21 W/m 13,6 C 17,5 C 6,4 km/h (2 Bft)
28.08.2015 17:33 17,4 C 78 % 1016,8 hPa 0,0 l/m 5,4 km/h (2 Bft) W-SW 251 0 min 19 W/m 13,5 C 17,4 C 11,3 km/h (2 Bft)
28.08.2015 17:36 17,4 C 77 % 1016,8 hPa 0,0 l/m 9,2 km/h (2 Bft) W-SW 253 0 min 19 W/m 13,3 C 16,1 C 17,7 km/h (3 Bft)
28.08.2015 17:39 17,3 C 80 % 1016,9 hPa 0,0 l/m 8,1 km/h (2 Bft) W 275 0 min 19 W/m 13,8 C 16,5 C 17,7 km/h (3 Bft)
28.08.2015 17:42 17,3 C 82 % 1016,9 hPa 0,0 l/m 8,8 km/h (2 Bft) W-SW 240 0 min 25 W/m 14,2 C 16,2 C 16,1 km/h (3 Bft)
28.08.2015 17:45 17,1 C 83 % 1016,9 hPa 0,0 l/m 9,7 km/h (2 Bft) SW 227 0 min 35 W/m 14,2 C 15,6 C 16,1 km/h (3 Bft)
28.08.2015 17:48 16,9 C 83 % 1016,9 hPa 0,0 l/m 8,4 km/h (2 Bft) SW 219 0 min 42 W/m 14,0 C 15,9 C 12,9 km/h (3 Bft)
28.08.2015 17:51 16,8 C 83 % 1016,9 hPa 0,0 l/m 5,9 km/h (2 Bft) SW 235 0 min 51 W/m 13,9 C 16,8 C 9,7 km/h (2 Bft)
28.08.2015 17:54 16,7 C 86 % 1016,9 hPa 0,0 l/m 3,4 km/h (1 Bft) S 186 0 min 70 W/m 14,3 C 16,7 C 6,4 km/h (2 Bft)
28.08.2015 17:57 16,8 C 89 % 1016,8 hPa 0,0 l/m 2,6 km/h (1 Bft) S 177 0 min 156 W/m 15,0 C 16,8 C 4,8 km/h (1 Bft)
28.08.2015 18:00 17,2 C 88 % 1016,8 hPa 0,0 l/m 2,9 km/h (1 Bft) S-SO 166 3 min 371 W/m 15,2 C 17,2 C 4,8 km/h (1 Bft)
28.08.2015 18:03 17,7 C 85 % 1016,8 hPa 0,0 l/m 3,6 km/h (1 Bft) SW 218 3 min 348 W/m 15,1 C 17,7 C 8,0 km/h (2 Bft)
28.08.2015 18:06 17,9 C 82 % 1016,8 hPa 0,0 l/m 4,5 km/h (1 Bft) S-SW 210 3 min 279 W/m 14,8 C 17,9 C 8,0 km/h (2 Bft)
28.08.2015 18:09 18,2 C 83 % 1016,8 hPa 0,0 l/m 3,0 km/h (1 Bft) S 182 3 min 257 W/m 15,3 C 18,2 C 6,4 km/h (2 Bft)
28.08.2015 18:12 18,3 C 85 % 1016,9 hPa 0,0 l/m 2,8 km/h (1 Bft) S-SW 208 3 min 250 W/m 15,7 C 18,3 C 4,8 km/h (1 Bft)
28.08.2015 18:15 18,2 C 79 % 1016,9 hPa 0,0 l/m 3,2 km/h (1 Bft) SW 228 3 min 239 W/m 14,5 C 18,2 C 8,0 km/h (2 Bft)
28.08.2015 18:18 18,3 C 80 % 1016,9 hPa 0,0 l/m 2,5 km/h (1 Bft) S-SW 209 3 min 230 W/m 14,8 C 18,3 C 4,8 km/h (1 Bft)
28.08.2015 18:21 18,4 C 80 % 1016,9 hPa 0,0 l/m 6,0 km/h (2 Bft) SW 217 3 min 230 W/m 14,9 C 18,4 C 9,7 km/h (2 Bft)
28.08.2015 18:24 18,4 C 79 % 1017,0 hPa 0,0 l/m 5,2 km/h (1 Bft) W 266 3 min 218 W/m 14,7 C 18,4 C 9,7 km/h (2 Bft)
28.08.2015 18:27 18,3 C 79 % 1017,1 hPa 0,0 l/m 6,8 km/h (2 Bft) W 262 3 min 213 W/m 14,6 C 18,1 C 12,9 km/h (3 Bft)
28.08.2015 18:30 18,4 C 80 % 1017,1 hPa 0,0 l/m 7,7 km/h (2 Bft) W 265 3 min 195 W/m 14,9 C 17,8 C 16,1 km/h (3 Bft)
28.08.2015 18:33 18,6 C 78 % 1017,1 hPa 0,0 l/m 6,4 km/h (2 Bft) W-SW 239 0 min 105 W/m 14,7 C 18,6 C 14,5 km/h (3 Bft)
28.08.2015 18:36 18,6 C 78 % 1017,1 hPa 0,0 l/m 6,3 km/h (2 Bft) SW 221 3 min 181 W/m 14,7 C 18,6 C 17,7 km/h (3 Bft)
28.08.2015 18:39 18,6 C 77 % 1017,1 hPa 0,0 l/m 10,4 km/h (2 Bft) W 267 3 min 188 W/m 14,5 C 17,0 C 17,7 km/h (3 Bft)
28.08.2015 18:42 18,6 C 78 % 1017,1 hPa 0,0 l/m 7,5 km/h (2 Bft) W-SW 239 3 min 176 W/m 14,7 C 18,1 C 16,1 km/h (3 Bft)
28.08.2015 18:45 18,5 C 78 % 1017,1 hPa 0,0 l/m 8,0 km/h (2 Bft) W-SW 238 3 min 134 W/m 14,6 C 17,8 C 16,1 km/h (3 Bft)
28.08.2015 18:48 18,4 C 78 % 1017,1 hPa 0,0 l/m 6,5 km/h (2 Bft) W-SW 243 0 min 47 W/m 14,5 C 18,4 C 14,5 km/h (3 Bft)
28.08.2015 18:51 18,4 C 77 % 1017,1 hPa 0,0 l/m 8,8 km/h (2 Bft) W 271 0 min 46 W/m 14,3 C 17,3 C 16,1 km/h (3 Bft)
28.08.2015 18:54 18,4 C 77 % 1017,2 hPa 0,0 l/m 6,9 km/h (2 Bft) S-SO 167 0 min 46 W/m 14,3 C 18,2 C 11,3 km/h (2 Bft)
28.08.2015 18:57 18,3 C 78 % 1017,2 hPa 0,0 l/m 8,8 km/h (2 Bft) W 264 0 min 60 W/m 14,4 C 17,2 C 17,7 km/h (3 Bft)
28.08.2015 19:00 18,3 C 78 % 1017,3 hPa 0,0 l/m 7,1 km/h (2 Bft) W-SW 258 0 min 51 W/m 14,4 C 18,0 C 14,5 km/h (3 Bft)
28.08.2015 19:03 18,2 C 78 % 1017,2 hPa 0,0 l/m 8,3 km/h (2 Bft) W 279 0 min 54 W/m 14,3 C 17,3 C 16,1 km/h (3 Bft)
28.08.2015 19:06 18,2 C 79 % 1017,2 hPa 0,0 l/m 8,0 km/h (2 Bft) SW 222 0 min 54 W/m 14,5 C 17,5 C 16,1 km/h (3 Bft)
28.08.2015 19:09 18,1 C 80 % 1017,2 hPa 0,0 l/m 8,4 km/h (2 Bft) W 268 0 min 40 W/m 14,6 C 17,2 C 14,5 km/h (3 Bft)
28.08.2015 19:12 18,1 C 80 % 1017,2 hPa 0,0 l/m 5,4 km/h (2 Bft) W 267 0 min 40 W/m 14,6 C 18,1 C 12,9 km/h (3 Bft)
28.08.2015 19:15 18,1 C 81 % 1017,2 hPa 0,0 l/m 6,1 km/h (2 Bft) W-SW 252 0 min 44 W/m 14,8 C 18,1 C 16,1 km/h (3 Bft)
28.08.2015 19:18 18,1 C 81 % 1017,3 hPa 0,0 l/m 7,0 km/h (2 Bft) NW 323 0 min 40 W/m 14,8 C 17,8 C 16,1 km/h (3 Bft)
28.08.2015 19:21 18,0 C 81 % 1017,2 hPa 0,0 l/m 6,6 km/h (2 Bft) W-NW 298 0 min 30 W/m 14,7 C 17,9 C 11,3 km/h (2 Bft)
28.08.2015 19:24 17,9 C 80 % 1017,3 hPa 0,0 l/m 7,3 km/h (2 Bft) W-NW 292 0 min 28 W/m 14,4 C 17,5 C 14,5 km/h (3 Bft)
28.08.2015 19:27 17,9 C 78 % 1017,3 hPa 0,0 l/m 7,5 km/h (2 Bft) W-SW 245 0 min 26 W/m 14,0 C 17,4 C 14,5 km/h (3 Bft)
28.08.2015 19:30 17,8 C 76 % 1017,4 hPa 0,0 l/m 8,2 km/h (2 Bft) W 277 0 min 26 W/m 13,5 C 17,0 C 16,1 km/h (3 Bft)
28.08.2015 19:33 17,8 C 77 % 1017,3 hPa 0,0 l/m 9,3 km/h (2 Bft) SW 234 0 min 25 W/m 13,7 C 16,5 C 16,1 km/h (3 Bft)
28.08.2015 19:36 17,7 C 76 % 1017,3 hPa 0,0 l/m 6,4 km/h (2 Bft) W 278 0 min 23 W/m 13,4 C 17,7 C 16,1 km/h (3 Bft)
28.08.2015 19:39 17,6 C 77 % 1017,2 hPa 0,0 l/m 8,9 km/h (2 Bft) W-NW 292 0 min 21 W/m 13,5 C 16,4 C 14,5 km/h (3 Bft)
28.08.2015 19:42 17,6 C 77 % 1017,3 hPa 0,0 l/m 7,3 km/h (2 Bft) W 277 0 min 21 W/m 13,5 C 17,2 C 14,5 km/h (3 Bft)
28.08.2015 19:45 17,5 C 78 % 1017,4 hPa 0,0 l/m 6,6 km/h (2 Bft) W 279 0 min 21 W/m 13,6 C 17,4 C 14,5 km/h (3 Bft)
28.08.2015 19:48 17,5 C 78 % 1017,4 hPa 0,0 l/m 7,0 km/h (2 Bft) W 277 0 min 19 W/m 13,6 C 17,2 C 12,9 km/h (3 Bft)
28.08.2015 19:51 17,4 C 78 % 1017,4 hPa 0,0 l/m 7,3 km/h (2 Bft) SW 220 0 min 18 W/m 13,5 C 17,0 C 11,3 km/h (2 Bft)
28.08.2015 19:54 17,4 C 78 % 1017,5 hPa 0,0 l/m 6,6 km/h (2 Bft) W-SW 245 0 min 18 W/m 13,5 C 17,3 C 16,1 km/h (3 Bft)
28.08.2015 19:57 17,3 C 78 % 1017,5 hPa 0,0 l/m 7,8 km/h (2 Bft) W 272 0 min 16 W/m 13,4 C 16,6 C 16,1 km/h (3 Bft)
28.08.2015 20:00 17,3 C 78 % 1017,5 hPa 0,0 l/m 6,8 km/h (2 Bft) W-SW 257 0 min 14 W/m 13,4 C 17,1 C 14,5 km/h (3 Bft)
28.08.2015 20:03 17,2 C 79 % 1017,5 hPa 0,0 l/m 5,4 km/h (2 Bft) W 281 0 min 12 W/m 13,5 C 17,2 C 12,9 km/h (3 Bft)
28.08.2015 20:06 17,2 C 79 % 1017,6 hPa 0,0 l/m 4,7 km/h (1 Bft) W 263 0 min 11 W/m 13,5 C 17,2 C 11,3 km/h (2 Bft)
28.08.2015 20:09 17,1 C 79 % 1017,7 hPa 0,0 l/m 6,3 km/h (2 Bft) W 268 0 min 11 W/m 13,4 C 17,1 C 12,9 km/h (3 Bft)
28.08.2015 20:12 17,1 C 79 % 1017,7 hPa 0,0 l/m 7,1 km/h (2 Bft) W-NW 293 0 min 9 W/m 13,4 C 16,7 C 14,5 km/h (3 Bft)
28.08.2015 20:15 17,0 C 79 % 1017,7 hPa 0,0 l/m 7,0 km/h (2 Bft) W 260 0 min 7 W/m 13,3 C 16,7 C 12,9 km/h (3 Bft)
28.08.2015 20:18 17,0 C 79 % 1017,7 hPa 0,0 l/m 5,5 km/h (2 Bft) W-NW 296 0 min 5 W/m 13,3 C 17,0 C 12,9 km/h (3 Bft)
28.08.2015 20:21 16,9 C 80 % 1017,8 hPa 0,0 l/m 4,9 km/h (1 Bft) W 270 0 min 5 W/m 13,4 C 16,9 C 9,7 km/h (2 Bft)
28.08.2015 20:24 16,9 C 80 % 1017,8 hPa 0,0 l/m 5,2 km/h (1 Bft) W 259 0 min 0 W/m 13,4 C 16,9 C 9,7 km/h (2 Bft)
28.08.2015 20:27 16,8 C 80 % 1017,8 hPa 0,0 l/m 5,9 km/h (2 Bft) W-SW 246 0 min 0 W/m 13,3 C 16,8 C 12,9 km/h (3 Bft)
28.08.2015 20:30 16,8 C 80 % 1017,8 hPa 0,0 l/m 4,6 km/h (1 Bft) W 279 0 min 0 W/m 13,3 C 16,8 C 11,3 km/h (2 Bft)
28.08.2015 20:33 16,8 C 80 % 1017,8 hPa 0,0 l/m 6,8 km/h (2 Bft) W 270 0 min 0 W/m 13,3 C 16,6 C 12,9 km/h (3 Bft)
28.08.2015 20:36 16,7 C 80 % 1017,9 hPa 0,0 l/m 5,2 km/h (1 Bft) W 269 0 min 0 W/m 13,2 C 16,7 C 11,3 km/h (2 Bft)
28.08.2015 20:39 16,7 C 79 % 1017,9 hPa 0,0 l/m 5,9 km/h (2 Bft) W 259 0 min 0 W/m 13,0 C 16,7 C 16,1 km/h (3 Bft)
28.08.2015 20:42 16,7 C 78 % 1018,0 hPa 0,0 l/m 8,1 km/h (2 Bft) W 279 0 min 0 W/m 12,8 C 15,8 C 12,9 km/h (3 Bft)
28.08.2015 20:45 16,7 C 79 % 1018,2 hPa 0,0 l/m 6,4 km/h (2 Bft) W 281 0 min 0 W/m 13,0 C 16,7 C 12,9 km/h (3 Bft)
28.08.2015 20:48 16,7 C 79 % 1018,1 hPa 0,0 l/m 7,5 km/h (2 Bft) W 259 0 min 0 W/m 13,0 C 16,1 C 12,9 km/h (3 Bft)
28.08.2015 20:51 16,7 C 79 % 1018,2 hPa 0,0 l/m 5,0 km/h (1 Bft) SW 235 0 min 0 W/m 13,0 C 16,7 C 9,7 km/h (2 Bft)
28.08.2015 20:54 16,7 C 80 % 1018,2 hPa 0,0 l/m 4,5 km/h (1 Bft) W-SW 242 0 min 0 W/m 13,2 C 16,7 C 9,7 km/h (2 Bft)
28.08.2015 20:57 16,6 C 81 % 1018,2 hPa 0,0 l/m 4,5 km/h (1 Bft) W-SW 249 0 min 0 W/m 13,3 C 16,6 C 11,3 km/h (2 Bft)
28.08.2015 21:00 16,6 C 81 % 1018,2 hPa 0,0 l/m 5,9 km/h (2 Bft) W-SW 257 0 min 0 W/m 13,3 C 16,6 C 11,3 km/h (2 Bft)
28.08.2015 21:03 16,6 C 81 % 1018,2 hPa 0,0 l/m 4,4 km/h (1 Bft) W-SW 240 0 min 0 W/m 13,3 C 16,6 C 9,7 km/h (2 Bft)
28.08.2015 21:06 16,6 C 80 % 1018,2 hPa 0,0 l/m 6,1 km/h (2 Bft) W-SW 242 0 min 0 W/m 13,1 C 16,6 C 12,9 km/h (3 Bft)
28.08.2015 21:09 16,6 C 81 % 1018,2 hPa 0,0 l/m 3,1 km/h (1 Bft) W 259 0 min 0 W/m 13,3 C 16,6 C 6,4 km/h (2 Bft)
28.08.2015 21:12 16,6 C 81 % 1018,2 hPa 0,0 l/m 5,1 km/h (1 Bft) W 265 0 min 0 W/m 13,3 C 16,6 C 11,3 km/h (2 Bft)
28.08.2015 21:15 16,5 C 82 % 1018,2 hPa 0,0 l/m 3,8 km/h (1 Bft) W 263 0 min 0 W/m 13,4 C 16,5 C 9,7 km/h (2 Bft)
28.08.2015 21:18 16,4 C 82 % 1018,3 hPa 0,0 l/m 5,6 km/h (2 Bft) W-SW 248 0 min 0 W/m 13,3 C 16,4 C 11,3 km/h (2 Bft)
28.08.2015 21:21 16,4 C 81 % 1018,3 hPa 0,0 l/m 5,1 km/h (1 Bft) W-SW 246 0 min 0 W/m 13,1 C 16,4 C 11,3 km/h (2 Bft)
28.08.2015 21:24 16,5 C 81 % 1018,4 hPa 0,0 l/m 4,3 km/h (1 Bft) W-NW 287 0 min 0 W/m 13,2 C 16,5 C 11,3 km/h (2 Bft)
28.08.2015 21:27 16,4 C 81 % 1018,4 hPa 0,0 l/m 4,5 km/h (1 Bft) W-SW 245 0 min 0 W/m 13,1 C 16,4 C 9,7 km/h (2 Bft)
28.08.2015 21:30 16,5 C 81 % 1018,5 hPa 0,0 l/m 4,6 km/h (1 Bft) W 271 0 min 0 W/m 13,2 C 16,5 C 9,7 km/h (2 Bft)
28.08.2015 21:33 16,4 C 82 % 1018,5 hPa 0,0 l/m 4,4 km/h (1 Bft) W-NW 284 0 min 0 W/m 13,3 C 16,4 C 8,0 km/h (2 Bft)
28.08.2015 21:36 16,4 C 82 % 1018,5 hPa 0,0 l/m 3,0 km/h (1 Bft) W 267 0 min 0 W/m 13,3 C 16,4 C 6,4 km/h (2 Bft)
28.08.2015 21:39 16,3 C 82 % 1018,6 hPa 0,0 l/m 4,5 km/h (1 Bft) W 276 0 min 0 W/m 13,2 C 16,3 C 9,7 km/h (2 Bft)
28.08.2015 21:42 16,3 C 83 % 1018,6 hPa 0,0 l/m 4,1 km/h (1 Bft) W-NW 297 0 min 0 W/m 13,4 C 16,3 C 6,4 km/h (2 Bft)
28.08.2015 21:45 16,3 C 84 % 1018,6 hPa 0,0 l/m 5,3 km/h (1 Bft) W 281 0 min 0 W/m 13,6 C 16,3 C 12,9 km/h (3 Bft)
28.08.2015 21:48 16,3 C 83 % 1018,6 hPa 0,0 l/m 5,5 km/h (2 Bft) W 278 0 min 0 W/m 13,4 C 16,3 C 11,3 km/h (2 Bft)
28.08.2015 21:51 16,4 C 84 % 1018,6 hPa 0,0 l/m 4,6 km/h (1 Bft) W 260 0 min 0 W/m 13,7 C 16,4 C 6,4 km/h (2 Bft)
28.08.2015 21:54 16,3 C 84 % 1018,7 hPa 0,0 l/m 6,8 km/h (2 Bft) W-SW 257 0 min 0 W/m 13,6 C 16,1 C 14,5 km/h (3 Bft)
28.08.2015 21:57 16,4 C 83 % 1018,7 hPa 0,0 l/m 7,4 km/h (2 Bft) SW 231 0 min 0 W/m 13,5 C 15,9 C 12,9 km/h (3 Bft)
28.08.2015 22:00 16,5 C 83 % 1018,9 hPa 0,0 l/m 5,2 km/h (1 Bft) W 259 0 min 0 W/m 13,6 C 16,5 C 9,7 km/h (2 Bft)
28.08.2015 22:03 16,6 C 83 % 1018,9 hPa 0,0 l/m 6,6 km/h (2 Bft) W 272 0 min 0 W/m 13,7 C 16,5 C 12,9 km/h (3 Bft)
28.08.2015 22:06 16,6 C 82 % 1018,8 hPa 0,0 l/m 5,8 km/h (2 Bft) W 278 0 min 0 W/m 13,5 C 16,6 C 11,3 km/h (2 Bft)
28.08.2015 22:09 16,6 C 81 % 1018,8 hPa 0,0 l/m 5,4 km/h (2 Bft) W 263 0 min 0 W/m 13,3 C 16,6 C 12,9 km/h (3 Bft)
28.08.2015 22:12 16,6 C 81 % 1018,9 hPa 0,0 l/m 9,4 km/h (2 Bft) W 265 0 min 0 W/m 13,3 C 15,1 C 17,7 km/h (3 Bft)
28.08.2015 22:15 16,7 C 80 % 1018,9 hPa 0,0 l/m 8,2 km/h (2 Bft) W 281 0 min 0 W/m 13,2 C 15,8 C 19,3 km/h (3 Bft)
28.08.2015 22:18 16,7 C 80 % 1018,9 hPa 0,0 l/m 6,1 km/h (2 Bft) W 264 0 min 0 W/m 13,2 C 16,7 C 14,5 km/h (3 Bft)
28.08.2015 22:21 16,8 C 79 % 1018,9 hPa 0,0 l/m 8,2 km/h (2 Bft) W-NW 294 0 min 0 W/m 13,1 C 15,9 C 16,1 km/h (3 Bft)
28.08.2015 22:24 16,9 C 79 % 1018,9 hPa 0,0 l/m 5,6 km/h (2 Bft) SW 227 0 min 0 W/m 13,2 C 16,9 C 11,3 km/h (2 Bft)
28.08.2015 22:27 16,9 C 79 % 1019,0 hPa 0,0 l/m 8,8 km/h (2 Bft) SW 233 0 min 0 W/m 13,2 C 15,7 C 16,1 km/h (3 Bft)
28.08.2015 22:30 16,9 C 78 % 1019,0 hPa 0,0 l/m 7,7 km/h (2 Bft) W-SW 238 0 min 0 W/m 13,0 C 16,2 C 12,9 km/h (3 Bft)
28.08.2015 22:33 16,9 C 78 % 1019,0 hPa 0,0 l/m 6,7 km/h (2 Bft) SW 214 0 min 0 W/m 13,0 C 16,8 C 11,3 km/h (2 Bft)
28.08.2015 22:36 16,9 C 79 % 1019,0 hPa 0,0 l/m 5,3 km/h (1 Bft) W-SW 248 0 min 0 W/m 13,2 C 16,9 C 11,3 km/h (2 Bft)
28.08.2015 22:39 16,9 C 78 % 1019,1 hPa 0,0 l/m 6,1 km/h (2 Bft) W-NW 292 0 min 0 W/m 13,0 C 16,9 C 11,3 km/h (2 Bft)
28.08.2015 22:42 16,9 C 78 % 1019,1 hPa 0,0 l/m 6,2 km/h (2 Bft) W-SW 247 0 min 0 W/m 13,0 C 16,9 C 11,3 km/h (2 Bft)
28.08.2015 22:45 16,9 C 78 % 1019,2 hPa 0,0 l/m 8,8 km/h (2 Bft) SW 227 0 min 0 W/m 13,0 C 15,7 C 16,1 km/h (3 Bft)
28.08.2015 22:48 16,9 C 78 % 1019,2 hPa 0,0 l/m 9,3 km/h (2 Bft) W-NW 286 0 min 0 W/m 13,0 C 15,5 C 17,7 km/h (3 Bft)
28.08.2015 22:51 16,9 C 78 % 1019,3 hPa 0,0 l/m 7,3 km/h (2 Bft) W-SW 242 0 min 0 W/m 13,0 C 16,4 C 12,9 km/h (3 Bft)
28.08.2015 22:54 16,8 C 78 % 1019,2 hPa 0,0 l/m 7,8 km/h (2 Bft) W-SW 246 0 min 0 W/m 12,9 C 16,1 C 12,9 km/h (3 Bft)
28.08.2015 22:57 16,8 C 78 % 1019,2 hPa 0,0 l/m 5,4 km/h (2 Bft) W-SW 248 0 min 0 W/m 12,9 C 16,8 C 11,3 km/h (2 Bft)
28.08.2015 23:00 16,8 C 79 % 1019,3 hPa 0,0 l/m 6,1 km/h (2 Bft) W 270 0 min 0 W/m 13,1 C 16,8 C 11,3 km/h (2 Bft)
28.08.2015 23:03 16,7 C 80 % 1019,3 hPa 0,0 l/m 7,6 km/h (2 Bft) W-SW 251 0 min 0 W/m 13,2 C 16,1 C 16,1 km/h (3 Bft)
28.08.2015 23:06 16,7 C 80 % 1019,3 hPa 0,0 l/m 6,5 km/h (2 Bft) W-SW 242 0 min 0 W/m 13,2 C 16,7 C 11,3 km/h (2 Bft)
28.08.2015 23:09 16,6 C 80 % 1019,3 hPa 0,0 l/m 6,5 km/h (2 Bft) W 277 0 min 0 W/m 13,1 C 16,6 C 12,9 km/h (3 Bft)
28.08.2015 23:12 16,6 C 80 % 1019,3 hPa 0,0 l/m 5,8 km/h (2 Bft) W-SW 242 0 min 0 W/m 13,1 C 16,6 C 11,3 km/h (2 Bft)
28.08.2015 23:15 16,6 C 79 % 1019,4 hPa 0,0 l/m 6,1 km/h (2 Bft) W-SW 250 0 min 0 W/m 12,9 C 16,6 C 9,7 km/h (2 Bft)
28.08.2015 23:18 16,6 C 79 % 1019,4 hPa 0,0 l/m 4,6 km/h (1 Bft) SW 226 0 min 0 W/m 12,9 C 16,6 C 8,0 km/h (2 Bft)
28.08.2015 23:21 16,6 C 79 % 1019,4 hPa 0,0 l/m 6,4 km/h (2 Bft) SW 232 0 min 0 W/m 12,9 C 16,6 C 14,5 km/h (3 Bft)
28.08.2015 23:24 16,6 C 79 % 1019,5 hPa 0,0 l/m 5,2 km/h (1 Bft) W-SW 242 0 min 0 W/m 12,9 C 16,6 C 11,3 km/h (2 Bft)
28.08.2015 23:27 16,7 C 79 % 1019,5 hPa 0,0 l/m 5,5 km/h (2 Bft) SW 229 0 min 0 W/m 13,0 C 16,7 C 11,3 km/h (2 Bft)
28.08.2015 23:30 16,6 C 79 % 1019,5 hPa 0,0 l/m 5,6 km/h (2 Bft) W-SW 251 0 min 0 W/m 12,9 C 16,6 C 11,3 km/h (2 Bft)
28.08.2015 23:33 16,6 C 79 % 1019,5 hPa 0,0 l/m 4,7 km/h (1 Bft) SW 234 0 min 0 W/m 12,9 C 16,6 C 9,7 km/h (2 Bft)
28.08.2015 23:36 16,5 C 80 % 1019,5 hPa 0,0 l/m 5,7 km/h (2 Bft) S-SW 209 0 min 0 W/m 13,0 C 16,5 C 14,5 km/h (3 Bft)
28.08.2015 23:39 16,4 C 79 % 1019,5 hPa 0,0 l/m 5,8 km/h (2 Bft) W-SW 251 0 min 0 W/m 12,7 C 16,4 C 9,7 km/h (2 Bft)
28.08.2015 23:42 16,3 C 80 % 1019,5 hPa 0,0 l/m 5,4 km/h (2 Bft) SW 220 0 min 0 W/m 12,8 C 16,3 C 9,7 km/h (2 Bft)
28.08.2015 23:45 16,2 C 80 % 1019,6 hPa 0,0 l/m 6,0 km/h (2 Bft) W-SW 258 0 min 0 W/m 12,7 C 16,2 C 14,5 km/h (3 Bft)
28.08.2015 23:48 16,2 C 80 % 1019,6 hPa 0,0 l/m 5,2 km/h (1 Bft) SW 216 0 min 0 W/m 12,7 C 16,2 C 9,7 km/h (2 Bft)
28.08.2015 23:51 16,2 C 79 % 1019,6 hPa 0,0 l/m 5,6 km/h (2 Bft) SW 234 0 min 0 W/m 12,6 C 16,2 C 11,3 km/h (2 Bft)
28.08.2015 23:54 16,3 C 80 % 1019,6 hPa 0,0 l/m 7,9 km/h (2 Bft) W-SW 241 0 min 0 W/m 12,8 C 15,5 C 16,1 km/h (3 Bft)
28.08.2015 23:57 16,4 C 81 % 1019,5 hPa 0,0 l/m 8,3 km/h (2 Bft) S-SW 213 0 min 0 W/m 13,1 C 15,4 C 14,5 km/h (3 Bft)
_ Min-Zeit 05:54 15:03 00:00 - 18:18 - - - - 23:51 03:00 17:57
Minimum _ 14,6 C 67 % 1008,8 hPa - 2,5 km/h (1 Bft) - - - - 12,6 C 11,1 C 4,8 km/h (1 Bft)
_ Max-Zeit 15:03 00:00 23:45 16:06 14:45 - - 10:09 13:12 16:45 15:36 01:27
Maximum _ 20,3 C 94 % 1019,6 hPa 0,8 l/m 18,4 km/h
SW (3 Bft)
- - 3 min 728 W/m 16,3 C 18,7 C 30,6 km/h
SW (5 Bft)
Durchschnitt _ 16,6 C 85 % 1014,3 hPa #1,6 l/m 10,3 km/h (2 Bft) SW - #4:21 h 232 W/m 13,9 C 14,8 C 17,4 km/h (3 Bft)
copyright by Holger Just